Wetterdaten: Montag, 05.12.2011
Datum Zeit Temp. Innen Temp. Aussen UV X Diff Temp. Feuchte Inne Feuchte Auss Sonnenschein Luftdruck Regen ab 0,1 Wind Sonnenschein T Regendauer Windben
05.12.2011 00:00 15,2 C 7,7 C 0,0 UV-I 0,0 C 54 % 84 % 0 % 991,2 hPa 0,0 l/m 4,4 km/h (1 Bft) 0 min 2 min 9,3 km/h (2 Bft)
05.12.2011 00:02 15,2 C 7,7 C 0,0 UV-I 0,0 C 54 % 84 % 0 % 991,2 hPa 0,0 l/m 4,4 km/h (1 Bft) 0 min 0 min 9,3 km/h (2 Bft)
05.12.2011 00:04 15,2 C 7,7 C 0,0 UV-I 0,0 C 54 % 84 % 0 % 991,1 hPa 0,0 l/m 4,8 km/h (1 Bft) 0 min 0 min 4,2 km/h (1 Bft)
05.12.2011 00:06 15,2 C 7,7 C 0,0 UV-I 0,0 C 54 % 84 % 0 % 991,1 hPa 0,0 l/m 4,8 km/h (1 Bft) 0 min 0 min 7,1 km/h (2 Bft)
05.12.2011 00:08 15,2 C 7,7 C 0,0 UV-I 0,0 C 54 % 84 % 0 % 991,1 hPa 0,0 l/m 5,2 km/h (1 Bft) 0 min 0 min 7,1 km/h (2 Bft)
05.12.2011 00:10 15,2 C 7,6 C 0,0 UV-I 0,0 C 54 % 84 % 0 % 991,1 hPa 0,0 l/m 4,8 km/h (1 Bft) 0 min 0 min 7,1 km/h (2 Bft)
05.12.2011 00:12 15,2 C 7,7 C 0,0 UV-I 0,0 C 54 % 84 % 0 % 991,1 hPa 0,0 l/m 4,8 km/h (1 Bft) 0 min 0 min 6,4 km/h (2 Bft)
05.12.2011 00:14 15,2 C 7,7 C 0,0 UV-I 0,0 C 54 % 84 % 0 % 991,1 hPa 0,0 l/m 4,0 km/h (1 Bft) 0 min 0 min 12,2 km/h (2 Bft)
05.12.2011 00:16 15,2 C 7,7 C 0,0 UV-I 0,0 C 54 % 85 % 0 % 991,1 hPa 0,0 l/m 5,2 km/h (1 Bft) 0 min 0 min 12,2 km/h (2 Bft)
05.12.2011 00:18 15,2 C 7,6 C 0,0 UV-I 0,0 C 54 % 85 % 0 % 991,1 hPa 0,0 l/m 5,2 km/h (1 Bft) 0 min 0 min 7,7 km/h (2 Bft)
05.12.2011 00:20 15,2 C 7,6 C 0,0 UV-I 0,0 C 54 % 84 % 0 % 991,1 hPa 0,0 l/m 5,6 km/h (1 Bft) 0 min 0 min 8,0 km/h (2 Bft)
05.12.2011 00:22 15,2 C 7,6 C 0,0 UV-I 0,0 C 54 % 85 % 0 % 991,1 hPa 0,0 l/m 6,0 km/h (2 Bft) 0 min 0 min 12,2 km/h (2 Bft)
05.12.2011 00:24 15,2 C 7,6 C 0,0 UV-I 0,0 C 55 % 85 % 0 % 991,1 hPa 0,0 l/m 6,4 km/h (2 Bft) 0 min 0 min 9,0 km/h (2 Bft)
05.12.2011 00:26 15,2 C 7,6 C 0,0 UV-I 0,0 C 55 % 84 % 0 % 991,6 hPa 0,0 l/m 8,4 km/h (2 Bft) 0 min 0 min 34,1 km/h (5 Bft)
05.12.2011 00:28 15,2 C 7,6 C 0,0 UV-I 0,0 C 55 % 83 % 0 % 991,6 hPa 0,0 l/m 10,8 km/h (2 Bft) 0 min 0 min 34,1 km/h (5 Bft)
05.12.2011 00:30 15,2 C 7,5 C 0,0 UV-I 0,0 C 55 % 82 % 0 % 991,6 hPa 0,0 l/m 11,2 km/h (2 Bft) 0 min 0 min 15,1 km/h (3 Bft)
05.12.2011 00:32 15,2 C 7,2 C 0,0 UV-I 0,0 C 55 % 82 % 0 % 991,6 hPa 0,0 l/m 12,8 km/h (3 Bft) 0 min 2 min 43,1 km/h (6 Bft)
05.12.2011 00:34 15,2 C 7,1 C 0,0 UV-I 0,0 C 54 % 82 % 0 % 991,6 hPa 0,0 l/m 14,9 km/h (3 Bft) 0 min 2 min 24,8 km/h (4 Bft)
05.12.2011 00:36 15,2 C 7,1 C 0,0 UV-I 0,0 C 54 % 82 % 0 % 991,6 hPa 0,0 l/m 15,7 km/h (3 Bft) 0 min 2 min 24,8 km/h (4 Bft)
05.12.2011 00:38 15,2 C 6,9 C 0,0 UV-I 0,0 C 54 % 82 % 0 % 991,6 hPa 0,0 l/m 14,5 km/h (3 Bft) 0 min 2 min 17,7 km/h (3 Bft)
05.12.2011 00:40 15,2 C 6,8 C 0,0 UV-I 0,0 C 54 % 82 % 0 % 991,6 hPa 0,0 l/m 14,9 km/h (3 Bft) 0 min 2 min 17,7 km/h (3 Bft)
05.12.2011 00:42 15,2 C 6,7 C 0,0 UV-I 0,0 C 54 % 83 % 0 % 991,6 hPa 0,0 l/m 15,7 km/h (3 Bft) 0 min 2 min 21,2 km/h (4 Bft)
05.12.2011 00:44 15,2 C 6,5 C 0,0 UV-I 0,0 C 54 % 83 % 0 % 992,4 hPa 0,0 l/m 17,3 km/h (3 Bft) 0 min 2 min 27,0 km/h (4 Bft)
05.12.2011 00:46 15,2 C 6,4 C 0,0 UV-I 0,0 C 54 % 83 % 0 % 992,4 hPa 0,4 l/m 16,9 km/h (3 Bft) 0 min 2 min 27,0 km/h (4 Bft)
05.12.2011 00:48 15,2 C 6,3 C 0,0 UV-I 0,0 C 54 % 84 % 0 % 992,4 hPa 0,4 l/m 15,3 km/h (3 Bft) 0 min 2 min 19,3 km/h (3 Bft)
05.12.2011 00:50 15,2 C 6,0 C 0,0 UV-I 0,0 C 54 % 84 % 0 % 992,4 hPa 0,0 l/m 14,5 km/h (3 Bft) 0 min 2 min 15,4 km/h (3 Bft)
05.12.2011 00:52 15,2 C 6,0 C 0,0 UV-I 0,0 C 54 % 84 % 0 % 992,4 hPa 0,2 l/m 14,5 km/h (3 Bft) 0 min 2 min 15,4 km/h (3 Bft)
05.12.2011 00:54 15,2 C 5,9 C 0,0 UV-I 0,0 C 54 % 85 % 0 % 992,4 hPa 0,1 l/m 12,8 km/h (3 Bft) 0 min 0 min 6,1 km/h (2 Bft)
05.12.2011 00:56 15,2 C 5,9 C 0,0 UV-I 0,0 C 54 % 86 % 0 % 992,4 hPa 0,0 l/m 11,6 km/h (2 Bft) 0 min 0 min 16,7 km/h (3 Bft)
05.12.2011 00:58 15,1 C 5,7 C 0,0 UV-I 0,0 C 54 % 86 % 0 % 992,4 hPa 0,1 l/m 10,8 km/h (2 Bft) 0 min 0 min 16,7 km/h (3 Bft)
05.12.2011 01:00 15,2 C 5,7 C 0,0 UV-I 0,0 C 54 % 87 % 0 % 992,4 hPa 0,0 l/m 11,6 km/h (2 Bft) 0 min 0 min 22,2 km/h (4 Bft)
05.12.2011 01:02 15,1 C 5,6 C 0,0 UV-I 0,0 C 54 % 87 % 0 % 992,4 hPa 0,0 l/m 11,2 km/h (2 Bft) 0 min 0 min 22,2 km/h (4 Bft)
05.12.2011 01:04 15,1 C 5,7 C 0,0 UV-I 0,0 C 54 % 87 % 0 % 992,0 hPa 0,0 l/m 9,2 km/h (2 Bft) 0 min 0 min 12,9 km/h (3 Bft)
05.12.2011 01:06 15,1 C 5,6 C 0,0 UV-I 0,0 C 54 % 87 % 0 % 992,0 hPa 0,0 l/m 8,4 km/h (2 Bft) 0 min 0 min 4,2 km/h (1 Bft)
05.12.2011 01:08 15,1 C 5,6 C 0,0 UV-I 0,0 C 54 % 87 % 0 % 992,0 hPa 0,0 l/m 7,2 km/h (2 Bft) 0 min 0 min 4,2 km/h (1 Bft)
05.12.2011 01:10 15,1 C 5,5 C 0,0 UV-I 0,0 C 54 % 87 % 0 % 992,0 hPa 0,0 l/m 6,0 km/h (2 Bft) 0 min 0 min 3,5 km/h (1 Bft)
05.12.2011 01:12 15,1 C 5,5 C 0,0 UV-I 0,0 C 54 % 87 % 0 % 992,0 hPa 0,1 l/m 3,6 km/h (1 Bft) 0 min 0 min 3,5 km/h (1 Bft)
05.12.2011 01:14 15,1 C 5,5 C 0,0 UV-I 0,0 C 54 % 87 % 0 % 992,0 hPa 0,0 l/m 3,2 km/h (1 Bft) 0 min 0 min 0,0 km/h (0 Bft)
05.12.2011 01:16 15,1 C 5,4 C 0,0 UV-I 0,0 C 54 % 88 % 0 % 992,0 hPa 0,0 l/m 3,2 km/h (1 Bft) 0 min 0 min 4,8 km/h (1 Bft)
05.12.2011 01:18 15,1 C 5,5 C 0,0 UV-I 0,0 C 54 % 88 % 0 % 992,0 hPa 0,0 l/m 2,8 km/h (1 Bft) 0 min 0 min 4,8 km/h (1 Bft)
05.12.2011 01:20 15,1 C 5,5 C 0,0 UV-I 0,0 C 54 % 88 % 0 % 992,0 hPa 0,0 l/m 3,2 km/h (1 Bft) 0 min 0 min 5,1 km/h (1 Bft)
05.12.2011 01:22 15,1 C 5,4 C 0,0 UV-I 0,0 C 55 % 88 % 0 % 992,0 hPa 0,0 l/m 2,8 km/h (1 Bft) 0 min 0 min 6,4 km/h (2 Bft)
05.12.2011 01:24 14,9 C 5,3 C 0,0 UV-I 0,0 C 54 % 88 % 0 % 992,0 hPa 0,0 l/m 2,8 km/h (1 Bft) 0 min 0 min 6,4 km/h (2 Bft)
05.12.2011 01:26 14,9 C 5,3 C 0,0 UV-I 0,0 C 55 % 88 % 0 % 992,2 hPa 0,0 l/m 2,8 km/h (1 Bft) 0 min 0 min 6,8 km/h (2 Bft)
05.12.2011 01:28 14,9 C 5,2 C 0,0 UV-I 0,0 C 55 % 88 % 0 % 992,2 hPa 0,0 l/m 2,8 km/h (1 Bft) 0 min 0 min 6,8 km/h (2 Bft)
05.12.2011 01:30 14,9 C 5,3 C 0,0 UV-I 0,0 C 55 % 88 % 0 % 992,2 hPa 0,0 l/m 2,8 km/h (1 Bft) 0 min 0 min 4,2 km/h (1 Bft)
05.12.2011 01:32 15,1 C 5,3 C 0,0 UV-I 0,0 C 55 % 88 % 0 % 992,2 hPa 0,0 l/m 3,2 km/h (1 Bft) 0 min 0 min 4,8 km/h (1 Bft)
05.12.2011 01:34 14,9 C 5,3 C 0,0 UV-I 0,0 C 55 % 89 % 0 % 992,2 hPa 0,0 l/m 3,6 km/h (1 Bft) 0 min 0 min 5,1 km/h (1 Bft)
05.12.2011 01:36 14,9 C 5,3 C 0,0 UV-I 0,0 C 55 % 89 % 0 % 992,2 hPa 0,0 l/m 4,4 km/h (1 Bft) 0 min 0 min 8,7 km/h (2 Bft)
05.12.2011 01:38 14,9 C 5,3 C 0,0 UV-I 0,0 C 55 % 89 % 0 % 992,2 hPa 0,0 l/m 5,6 km/h (1 Bft) 0 min 0 min 8,7 km/h (2 Bft)
05.12.2011 01:40 15,0 C 5,3 C 0,0 UV-I 0,0 C 55 % 89 % 0 % 992,2 hPa 0,0 l/m 5,2 km/h (1 Bft) 0 min 0 min 5,8 km/h (2 Bft)
05.12.2011 01:42 15,0 C 5,3 C 0,0 UV-I 0,0 C 55 % 89 % 0 % 992,2 hPa 0,0 l/m 5,6 km/h (1 Bft) 0 min 0 min 4,8 km/h (1 Bft)
05.12.2011 01:44 15,0 C 5,2 C 0,0 UV-I 0,0 C 54 % 89 % 0 % 992,5 hPa 0,0 l/m 6,8 km/h (2 Bft) 0 min 0 min 7,7 km/h (2 Bft)
05.12.2011 01:46 15,0 C 5,3 C 0,0 UV-I 0,0 C 54 % 89 % 0 % 992,5 hPa 0,0 l/m 6,8 km/h (2 Bft) 0 min 0 min 7,7 km/h (2 Bft)
05.12.2011 01:48 15,0 C 5,2 C 0,0 UV-I 0,0 C 55 % 89 % 0 % 992,5 hPa 0,0 l/m 6,0 km/h (2 Bft) 0 min 0 min 6,4 km/h (2 Bft)
05.12.2011 01:50 15,0 C 5,2 C 0,0 UV-I 0,0 C 55 % 89 % 0 % 992,5 hPa 0,0 l/m 4,8 km/h (1 Bft) 0 min 0 min 3,9 km/h (1 Bft)
05.12.2011 01:52 15,0 C 5,3 C 0,0 UV-I 0,0 C 54 % 89 % 0 % 992,5 hPa 0,0 l/m 4,8 km/h (1 Bft) 0 min 0 min 6,1 km/h (2 Bft)
05.12.2011 01:54 15,0 C 5,2 C 0,0 UV-I 0,0 C 55 % 89 % 0 % 992,5 hPa 0,0 l/m 5,6 km/h (1 Bft) 0 min 0 min 11,3 km/h (2 Bft)
05.12.2011 01:56 15,0 C 5,3 C 0,0 UV-I 0,0 C 54 % 90 % 0 % 992,5 hPa 0,0 l/m 6,0 km/h (2 Bft) 0 min 0 min 16,4 km/h (3 Bft)
05.12.2011 01:58 15,0 C 5,2 C 0,0 UV-I 0,0 C 54 % 90 % 0 % 992,5 hPa 0,0 l/m 6,4 km/h (2 Bft) 0 min 0 min 16,4 km/h (3 Bft)
05.12.2011 02:00 15,0 C 5,2 C 0,0 UV-I 0,0 C 54 % 90 % 0 % 992,5 hPa 0,0 l/m 8,0 km/h (2 Bft) 0 min 0 min 16,1 km/h (3 Bft)
05.12.2011 02:02 15,0 C 5,2 C 0,0 UV-I 0,0 C 54 % 90 % 0 % 992,5 hPa 0,0 l/m 8,8 km/h (2 Bft) 0 min 0 min 16,1 km/h (3 Bft)
05.12.2011 02:04 15,0 C 5,2 C 0,0 UV-I 0,0 C 54 % 90 % 0 % 992,9 hPa 0,0 l/m 9,2 km/h (2 Bft) 0 min 2 min 16,1 km/h (3 Bft)
05.12.2011 02:06 15,0 C 5,2 C 0,0 UV-I 0,0 C 54 % 90 % 0 % 992,9 hPa 0,0 l/m 9,6 km/h (2 Bft) 0 min 2 min 16,7 km/h (3 Bft)
05.12.2011 02:08 15,0 C 5,3 C 0,0 UV-I 0,0 C 54 % 90 % 0 % 992,9 hPa 0,0 l/m 10,4 km/h (2 Bft) 0 min 2 min 16,7 km/h (3 Bft)
05.12.2011 02:10 15,0 C 5,3 C 0,0 UV-I 0,0 C 54 % 90 % 0 % 992,9 hPa 0,0 l/m 11,6 km/h (2 Bft) 0 min 2 min 17,4 km/h (3 Bft)
05.12.2011 02:12 15,0 C 5,3 C 0,0 UV-I 0,0 C 54 % 90 % 0 % 992,9 hPa 0,0 l/m 12,0 km/h (2 Bft) 0 min 2 min 17,4 km/h (3 Bft)
05.12.2011 02:14 14,8 C 5,3 C 0,0 UV-I 0,0 C 54 % 90 % 0 % 992,9 hPa 0,0 l/m 12,4 km/h (3 Bft) 0 min 0 min 19,3 km/h (3 Bft)
05.12.2011 02:16 14,8 C 5,3 C 0,0 UV-I 0,0 C 54 % 90 % 0 % 992,9 hPa 0,0 l/m 12,8 km/h (3 Bft) 0 min 0 min 19,3 km/h (3 Bft)
05.12.2011 02:18 14,8 C 5,3 C 0,0 UV-I 0,0 C 54 % 90 % 0 % 992,9 hPa 0,0 l/m 12,4 km/h (3 Bft) 0 min 0 min 23,5 km/h (4 Bft)
05.12.2011 02:20 14,8 C 5,3 C 0,0 UV-I 0,0 C 54 % 90 % 0 % 992,9 hPa 0,0 l/m 12,8 km/h (3 Bft) 0 min 0 min 23,5 km/h (4 Bft)
05.12.2011 02:22 14,8 C 5,3 C 0,0 UV-I 0,0 C 54 % 89 % 0 % 992,9 hPa 0,0 l/m 12,0 km/h (2 Bft) 0 min 0 min 13,2 km/h (3 Bft)
05.12.2011 02:24 14,8 C 5,3 C 0,0 UV-I 0,0 C 54 % 89 % 0 % 992,9 hPa 0,0 l/m 12,0 km/h (2 Bft) 0 min 0 min 12,2 km/h (2 Bft)
05.12.2011 02:26 14,8 C 5,3 C 0,0 UV-I 0,0 C 54 % 89 % 0 % 993,4 hPa 0,0 l/m 10,4 km/h (2 Bft) 0 min 0 min 12,2 km/h (2 Bft)
05.12.2011 02:28 14,8 C 5,3 C 0,0 UV-I 0,0 C 54 % 89 % 0 % 993,4 hPa 0,0 l/m 11,2 km/h (2 Bft) 0 min 0 min 10,3 km/h (2 Bft)
05.12.2011 02:30 14,8 C 5,2 C 0,0 UV-I 0,0 C 54 % 89 % 0 % 993,4 hPa 0,0 l/m 10,8 km/h (2 Bft) 0 min 0 min 18,0 km/h (3 Bft)
05.12.2011 02:32 14,8 C 5,3 C 0,0 UV-I 0,0 C 54 % 89 % 0 % 993,4 hPa 0,0 l/m 9,6 km/h (2 Bft) 0 min 0 min 18,0 km/h (3 Bft)
05.12.2011 02:34 14,8 C 5,2 C 0,0 UV-I 0,0 C 54 % 89 % 0 % 993,4 hPa 0,0 l/m 9,2 km/h (2 Bft) 0 min 0 min 15,1 km/h (3 Bft)
05.12.2011 02:36 14,9 C 5,3 C 0,0 UV-I 0,0 C 54 % 89 % 0 % 993,4 hPa 0,0 l/m 9,6 km/h (2 Bft) 0 min 0 min 15,1 km/h (3 Bft)
05.12.2011 02:38 14,9 C 5,3 C 0,0 UV-I 0,0 C 54 % 89 % 0 % 993,4 hPa 0,0 l/m 9,6 km/h (2 Bft) 0 min 0 min 17,4 km/h (3 Bft)
05.12.2011 02:40 14,9 C 5,3 C 0,0 UV-I 0,0 C 54 % 89 % 0 % 993,4 hPa 0,0 l/m 9,6 km/h (2 Bft) 0 min 0 min 17,4 km/h (3 Bft)
05.12.2011 02:42 14,9 C 5,3 C 0,0 UV-I 0,0 C 54 % 89 % 0 % 993,4 hPa 0,0 l/m 9,2 km/h (2 Bft) 0 min 0 min 12,2 km/h (2 Bft)
05.12.2011 02:44 14,8 C 5,3 C 0,0 UV-I 0,0 C 54 % 89 % 0 % 993,8 hPa 0,0 l/m 8,8 km/h (2 Bft) 0 min 0 min 5,1 km/h (1 Bft)
05.12.2011 02:46 14,8 C 5,3 C 0,0 UV-I 0,0 C 54 % 90 % 0 % 993,8 hPa 0,0 l/m 8,4 km/h (2 Bft) 0 min 0 min 5,1 km/h (1 Bft)
05.12.2011 02:48 14,8 C 5,3 C 0,0 UV-I 0,0 C 54 % 89 % 0 % 993,8 hPa 0,0 l/m 8,0 km/h (2 Bft) 0 min 0 min 6,8 km/h (2 Bft)
05.12.2011 02:50 14,8 C 5,3 C 0,0 UV-I 0,0 C 54 % 89 % 0 % 993,8 hPa 0,0 l/m 8,4 km/h (2 Bft) 0 min 0 min 14,2 km/h (3 Bft)
05.12.2011 02:52 14,8 C 5,3 C 0,0 UV-I 0,0 C 54 % 90 % 0 % 993,8 hPa 0,0 l/m 8,0 km/h (2 Bft) 0 min 0 min 14,2 km/h (3 Bft)
05.12.2011 02:54 14,8 C 5,3 C 0,0 UV-I 0,0 C 54 % 90 % 0 % 993,8 hPa 0,0 l/m 7,6 km/h (2 Bft) 0 min 0 min 6,4 km/h (2 Bft)
05.12.2011 02:56 14,8 C 5,3 C 0,0 UV-I 0,0 C 54 % 89 % 0 % 993,8 hPa 0,0 l/m 8,8 km/h (2 Bft) 0 min 0 min 9,0 km/h (2 Bft)
05.12.2011 02:58 14,8 C 5,3 C 0,0 UV-I 0,0 C 54 % 90 % 0 % 993,8 hPa 0,0 l/m 8,8 km/h (2 Bft) 0 min 0 min 13,5 km/h (3 Bft)
05.12.2011 03:00 14,8 C 5,3 C 0,0 UV-I 0,0 C 54 % 90 % 0 % 993,8 hPa 0,0 l/m 9,6 km/h (2 Bft) 0 min 0 min 13,5 km/h (3 Bft)
05.12.2011 03:02 14,8 C 5,4 C 0,0 UV-I 0,0 C 54 % 90 % 0 % 993,8 hPa 0,0 l/m 9,6 km/h (2 Bft) 0 min 0 min 22,2 km/h (4 Bft)
05.12.2011 03:04 14,8 C 5,5 C 0,0 UV-I 0,0 C 54 % 90 % 0 % 993,8 hPa 0,0 l/m 9,6 km/h (2 Bft) 0 min 0 min 22,2 km/h (4 Bft)
05.12.2011 03:06 14,8 C 5,5 C 0,0 UV-I 0,0 C 54 % 89 % 0 % 994,2 hPa 0,0 l/m 10,0 km/h (2 Bft) 0 min 0 min 6,1 km/h (2 Bft)
05.12.2011 03:08 14,8 C 5,5 C 0,0 UV-I 0,0 C 54 % 89 % 0 % 994,2 hPa 0,0 l/m 8,8 km/h (2 Bft) 0 min 0 min 9,0 km/h (2 Bft)
05.12.2011 03:10 14,8 C 5,5 C 0,0 UV-I 0,0 C 54 % 89 % 0 % 994,2 hPa 0,0 l/m 8,8 km/h (2 Bft) 0 min 0 min 10,0 km/h (2 Bft)
05.12.2011 03:12 14,8 C 5,4 C 0,0 UV-I 0,0 C 54 % 89 % 0 % 994,2 hPa 0,0 l/m 9,2 km/h (2 Bft) 0 min 0 min 25,1 km/h (4 Bft)
05.12.2011 03:14 14,8 C 5,3 C 0,0 UV-I 0,0 C 54 % 89 % 0 % 994,2 hPa 0,0 l/m 10,0 km/h (2 Bft) 0 min 0 min 25,1 km/h (4 Bft)
05.12.2011 03:16 14,8 C 5,3 C 0,0 UV-I 0,0 C 54 % 89 % 0 % 994,2 hPa 0,0 l/m 10,0 km/h (2 Bft) 0 min 0 min 36,4 km/h (5 Bft)
05.12.2011 03:18 14,8 C 5,3 C 0,0 UV-I 0,0 C 54 % 89 % 0 % 994,2 hPa 0,0 l/m 10,0 km/h (2 Bft) 0 min 0 min 36,4 km/h (5 Bft)
05.12.2011 03:20 14,8 C 5,3 C 0,0 UV-I 0,0 C 54 % 89 % 0 % 994,2 hPa 0,0 l/m 10,0 km/h (2 Bft) 0 min 0 min 11,9 km/h (2 Bft)
05.12.2011 03:22 14,8 C 5,3 C 0,0 UV-I 0,0 C 54 % 89 % 0 % 994,2 hPa 0,0 l/m 10,0 km/h (2 Bft) 0 min 0 min 5,8 km/h (2 Bft)
05.12.2011 03:24 14,8 C 5,3 C 0,0 UV-I 0,0 C 54 % 89 % 0 % 994,6 hPa 0,0 l/m 8,4 km/h (2 Bft) 0 min 0 min 9,3 km/h (2 Bft)
05.12.2011 03:26 14,8 C 5,2 C 0,0 UV-I 0,0 C 54 % 89 % 0 % 994,6 hPa 0,0 l/m 9,2 km/h (2 Bft) 0 min 0 min 9,3 km/h (2 Bft)
05.12.2011 03:28 14,8 C 5,2 C 0,0 UV-I 0,0 C 54 % 89 % 0 % 994,6 hPa 0,0 l/m 8,4 km/h (2 Bft) 0 min 0 min 18,3 km/h (3 Bft)
05.12.2011 03:30 14,8 C 5,2 C 0,0 UV-I 0,0 C 54 % 89 % 0 % 994,6 hPa 0,0 l/m 8,0 km/h (2 Bft) 0 min 0 min 18,3 km/h (3 Bft)
05.12.2011 03:32 14,8 C 5,2 C 0,0 UV-I 0,0 C 54 % 89 % 0 % 994,6 hPa 0,0 l/m 8,0 km/h (2 Bft) 0 min 0 min 20,0 km/h (4 Bft)
05.12.2011 03:34 14,8 C 5,2 C 0,0 UV-I 0,0 C 54 % 89 % 0 % 994,6 hPa 0,0 l/m 8,4 km/h (2 Bft) 0 min 0 min 20,0 km/h (4 Bft)
05.12.2011 03:36 14,8 C 5,2 C 0,0 UV-I 0,0 C 54 % 89 % 0 % 994,6 hPa 0,0 l/m 8,4 km/h (2 Bft) 0 min 0 min 10,6 km/h (2 Bft)
05.12.2011 03:38 14,6 C 5,2 C 0,0 UV-I 0,0 C 54 % 89 % 0 % 994,6 hPa 0,0 l/m 8,4 km/h (2 Bft) 0 min 0 min 10,0 km/h (2 Bft)
05.12.2011 03:40 14,8 C 5,2 C 0,0 UV-I 0,0 C 54 % 89 % 0 % 994,6 hPa 0,0 l/m 8,4 km/h (2 Bft) 0 min 0 min 7,1 km/h (2 Bft)
05.12.2011 03:42 14,8 C 5,2 C 0,0 UV-I 0,0 C 54 % 89 % 0 % 994,6 hPa 0,0 l/m 9,6 km/h (2 Bft) 0 min 0 min 9,7 km/h (2 Bft)
05.12.2011 03:44 14,8 C 5,2 C 0,0 UV-I 0,0 C 54 % 89 % 0 % 994,8 hPa 0,0 l/m 8,8 km/h (2 Bft) 0 min 0 min 9,7 km/h (2 Bft)
05.12.2011 03:46 14,8 C 5,2 C 0,0 UV-I 0,0 C 54 % 89 % 0 % 994,8 hPa 0,0 l/m 8,4 km/h (2 Bft) 0 min 0 min 7,1 km/h (2 Bft)
05.12.2011 03:48 14,8 C 5,3 C 0,0 UV-I 0,0 C 54 % 89 % 0 % 994,8 hPa 0,0 l/m 7,6 km/h (2 Bft) 0 min 0 min 7,1 km/h (2 Bft)
05.12.2011 03:50 14,6 C 5,2 C 0,0 UV-I 0,0 C 54 % 89 % 0 % 994,8 hPa 0,0 l/m 8,4 km/h (2 Bft) 0 min 0 min 10,9 km/h (2 Bft)
05.12.2011 03:52 14,6 C 5,3 C 0,0 UV-I 0,0 C 54 % 89 % 0 % 994,8 hPa 0,0 l/m 7,2 km/h (2 Bft) 0 min 0 min 10,9 km/h (2 Bft)
05.12.2011 03:54 14,6 C 5,2 C 0,0 UV-I 0,0 C 54 % 89 % 0 % 994,8 hPa 0,0 l/m 8,4 km/h (2 Bft) 0 min 0 min 7,7 km/h (2 Bft)
05.12.2011 03:56 14,6 C 5,2 C 0,0 UV-I 0,0 C 54 % 89 % 0 % 994,8 hPa 0,0 l/m 8,0 km/h (2 Bft) 0 min 0 min 7,7 km/h (2 Bft)
05.12.2011 03:58 14,6 C 5,2 C 0,0 UV-I 0,0 C 54 % 89 % 0 % 994,8 hPa 0,0 l/m 8,0 km/h (2 Bft) 0 min 0 min 11,6 km/h (2 Bft)
05.12.2011 04:00 14,7 C 5,2 C 0,0 UV-I 0,0 C 54 % 89 % 0 % 994,8 hPa 0,0 l/m 7,6 km/h (2 Bft) 0 min 0 min 11,6 km/h (2 Bft)
05.12.2011 04:02 14,7 C 5,1 C 0,0 UV-I 0,0 C 54 % 89 % 0 % 994,8 hPa 0,0 l/m 8,0 km/h (2 Bft) 0 min 0 min 10,6 km/h (2 Bft)
05.12.2011 04:04 14,6 C 5,1 C 0,0 UV-I 0,0 C 54 % 89 % 0 % 994,8 hPa 0,0 l/m 8,0 km/h (2 Bft) 0 min 0 min 6,1 km/h (2 Bft)
05.12.2011 04:06 14,6 C 5,1 C 0,0 UV-I 0,0 C 54 % 89 % 0 % 995,2 hPa 0,0 l/m 7,6 km/h (2 Bft) 0 min 0 min 6,1 km/h (2 Bft)
05.12.2011 04:08 14,7 C 5,1 C 0,0 UV-I 0,0 C 54 % 88 % 0 % 995,2 hPa 0,0 l/m 7,2 km/h (2 Bft) 0 min 0 min 11,6 km/h (2 Bft)
05.12.2011 04:10 14,7 C 5,0 C 0,0 UV-I 0,0 C 54 % 88 % 0 % 995,2 hPa 0,0 l/m 9,2 km/h (2 Bft) 0 min 0 min 15,4 km/h (3 Bft)
05.12.2011 04:12 14,7 C 5,0 C 0,0 UV-I 0,0 C 54 % 88 % 0 % 995,2 hPa 0,0 l/m 9,6 km/h (2 Bft) 0 min 0 min 15,4 km/h (3 Bft)
05.12.2011 04:14 14,7 C 5,1 C 0,0 UV-I 0,0 C 54 % 88 % 0 % 995,2 hPa 0,0 l/m 10,4 km/h (2 Bft) 0 min 0 min 13,8 km/h (3 Bft)
05.12.2011 04:16 14,7 C 5,1 C 0,0 UV-I 0,0 C 54 % 88 % 0 % 995,2 hPa 0,0 l/m 10,8 km/h (2 Bft) 0 min 0 min 11,9 km/h (2 Bft)
05.12.2011 04:18 14,7 C 5,1 C 0,0 UV-I 0,0 C 54 % 88 % 0 % 995,2 hPa 0,0 l/m 11,6 km/h (2 Bft) 0 min 0 min 10,6 km/h (2 Bft)
05.12.2011 04:20 14,7 C 5,1 C 0,0 UV-I 0,0 C 53 % 88 % 0 % 995,2 hPa 0,0 l/m 10,4 km/h (2 Bft) 0 min 0 min 7,1 km/h (2 Bft)
05.12.2011 04:22 14,7 C 5,0 C 0,0 UV-I 0,0 C 53 % 88 % 0 % 995,2 hPa 0,0 l/m 9,6 km/h (2 Bft) 0 min 0 min 7,1 km/h (2 Bft)
05.12.2011 04:24 14,7 C 4,9 C 0,0 UV-I 0,0 C 53 % 87 % 0 % 995,2 hPa 0,0 l/m 8,8 km/h (2 Bft) 0 min 0 min 18,0 km/h (3 Bft)
05.12.2011 04:26 14,6 C 4,9 C 0,0 UV-I 0,0 C 53 % 87 % 0 % 995,6 hPa 0,0 l/m 9,6 km/h (2 Bft) 0 min 0 min 18,0 km/h (3 Bft)
05.12.2011 04:28 14,6 C 4,9 C 0,0 UV-I 0,0 C 53 % 87 % 0 % 995,6 hPa 0,0 l/m 9,2 km/h (2 Bft) 0 min 0 min 18,0 km/h (3 Bft)
05.12.2011 04:30 14,6 C 4,9 C 0,0 UV-I 0,0 C 53 % 87 % 0 % 995,6 hPa 0,0 l/m 9,6 km/h (2 Bft) 0 min 0 min 17,1 km/h (3 Bft)
05.12.2011 04:32 14,6 C 4,8 C 0,0 UV-I 0,0 C 53 % 87 % 0 % 995,6 hPa 0,0 l/m 9,2 km/h (2 Bft) 0 min 0 min 6,8 km/h (2 Bft)
05.12.2011 04:34 14,6 C 4,8 C 0,0 UV-I 0,0 C 53 % 87 % 0 % 995,6 hPa 0,0 l/m 9,6 km/h (2 Bft) 0 min 0 min 7,1 km/h (2 Bft)
05.12.2011 04:36 14,6 C 4,8 C 0,0 UV-I 0,0 C 53 % 87 % 0 % 995,6 hPa 0,0 l/m 9,2 km/h (2 Bft) 0 min 0 min 9,0 km/h (2 Bft)
05.12.2011 04:38 14,6 C 4,8 C 0,0 UV-I 0,0 C 53 % 87 % 0 % 995,6 hPa 0,0 l/m 8,8 km/h (2 Bft) 0 min 0 min 9,0 km/h (2 Bft)
05.12.2011 04:40 14,6 C 4,9 C 0,0 UV-I 0,0 C 53 % 87 % 0 % 995,6 hPa 0,0 l/m 8,0 km/h (2 Bft) 0 min 0 min 11,6 km/h (2 Bft)
05.12.2011 04:42 14,6 C 4,9 C 0,0 UV-I 0,0 C 53 % 87 % 0 % 995,6 hPa 0,0 l/m 8,8 km/h (2 Bft) 0 min 0 min 11,6 km/h (2 Bft)
05.12.2011 04:44 14,6 C 4,8 C 0,0 UV-I 0,0 C 53 % 87 % 0 % 996,2 hPa 0,0 l/m 8,4 km/h (2 Bft) 0 min 0 min 6,4 km/h (2 Bft)
05.12.2011 04:46 14,6 C 4,8 C 0,0 UV-I 0,0 C 53 % 87 % 0 % 996,2 hPa 0,0 l/m 8,8 km/h (2 Bft) 0 min 0 min 12,2 km/h (2 Bft)
05.12.2011 04:48 14,6 C 4,8 C 0,0 UV-I 0,0 C 53 % 87 % 0 % 996,2 hPa 0,0 l/m 8,4 km/h (2 Bft) 0 min 0 min 15,8 km/h (3 Bft)
05.12.2011 04:50 14,6 C 4,8 C 0,0 UV-I 0,0 C 53 % 87 % 0 % 996,2 hPa 0,0 l/m 8,0 km/h (2 Bft) 0 min 0 min 15,8 km/h (3 Bft)
05.12.2011 04:52 14,6 C 4,7 C 0,0 UV-I 0,0 C 53 % 87 % 0 % 996,2 hPa 0,0 l/m 7,6 km/h (2 Bft) 0 min 0 min 10,6 km/h (2 Bft)
05.12.2011 04:54 14,6 C 4,7 C 0,0 UV-I 0,0 C 53 % 87 % 0 % 996,2 hPa 0,0 l/m 7,2 km/h (2 Bft) 0 min 0 min 10,6 km/h (2 Bft)
05.12.2011 04:56 14,6 C 4,7 C 0,0 UV-I 0,0 C 53 % 87 % 0 % 996,2 hPa 0,0 l/m 7,6 km/h (2 Bft) 0 min 0 min 5,5 km/h (1 Bft)
05.12.2011 04:58 14,6 C 4,7 C 0,0 UV-I 0,0 C 53 % 87 % 0 % 996,2 hPa 0,0 l/m 8,0 km/h (2 Bft) 0 min 0 min 11,6 km/h (2 Bft)
05.12.2011 05:00 14,6 C 4,7 C 0,0 UV-I 0,0 C 53 % 87 % 0 % 996,2 hPa 0,0 l/m 7,2 km/h (2 Bft) 0 min 0 min 11,6 km/h (2 Bft)
05.12.2011 05:02 14,6 C 4,7 C 0,0 UV-I 0,0 C 53 % 87 % 0 % 996,2 hPa 0,0 l/m 7,6 km/h (2 Bft) 0 min 0 min 10,6 km/h (2 Bft)
05.12.2011 05:04 14,4 C 4,7 C 0,0 UV-I 0,0 C 53 % 87 % 0 % 996,2 hPa 0,0 l/m 7,6 km/h (2 Bft) 0 min 0 min 8,4 km/h (2 Bft)
05.12.2011 05:06 14,6 C 4,6 C 0,0 UV-I 0,0 C 53 % 87 % 0 % 996,4 hPa 0,0 l/m 8,0 km/h (2 Bft) 0 min 0 min 15,8 km/h (3 Bft)
05.12.2011 05:08 14,4 C 4,6 C 0,0 UV-I 0,0 C 53 % 87 % 0 % 996,4 hPa 0,0 l/m 7,6 km/h (2 Bft) 0 min 0 min 15,8 km/h (3 Bft)
05.12.2011 05:10 14,4 C 4,6 C 0,0 UV-I 0,0 C 53 % 87 % 0 % 996,4 hPa 0,0 l/m 7,2 km/h (2 Bft) 0 min 0 min 5,5 km/h (1 Bft)
05.12.2011 05:12 14,6 C 4,6 C 0,0 UV-I 0,0 C 53 % 87 % 0 % 996,4 hPa 0,0 l/m 7,6 km/h (2 Bft) 0 min 0 min 7,4 km/h (2 Bft)
05.12.2011 05:14 14,4 C 4,7 C 0,0 UV-I 0,0 C 53 % 87 % 0 % 996,4 hPa 0,0 l/m 7,2 km/h (2 Bft) 0 min 0 min 7,4 km/h (2 Bft)
05.12.2011 05:16 14,4 C 4,7 C 0,0 UV-I 0,0 C 53 % 87 % 0 % 996,4 hPa 0,0 l/m 7,2 km/h (2 Bft) 0 min 0 min 6,4 km/h (2 Bft)
05.12.2011 05:18 14,4 C 4,7 C 0,0 UV-I 0,0 C 53 % 87 % 0 % 996,4 hPa 0,0 l/m 6,4 km/h (2 Bft) 0 min 0 min 5,1 km/h (1 Bft)
05.12.2011 05:20 14,4 C 4,7 C 0,0 UV-I 0,0 C 53 % 87 % 0 % 996,4 hPa 0,0 l/m 6,0 km/h (2 Bft) 0 min 0 min 8,4 km/h (2 Bft)
05.12.2011 05:22 14,4 C 4,7 C 0,0 UV-I 0,0 C 52 % 87 % 0 % 996,4 hPa 0,0 l/m 6,0 km/h (2 Bft) 0 min 0 min 8,4 km/h (2 Bft)
05.12.2011 05:24 14,4 C 4,7 C 0,0 UV-I 0,0 C 52 % 87 % 0 % 996,8 hPa 0,0 l/m 6,8 km/h (2 Bft) 0 min 0 min 9,3 km/h (2 Bft)
05.12.2011 05:26 14,4 C 4,6 C 0,0 UV-I 0,0 C 52 % 87 % 0 % 996,8 hPa 0,0 l/m 6,8 km/h (2 Bft) 0 min 0 min 9,3 km/h (2 Bft)
05.12.2011 05:28 14,5 C 4,7 C 0,0 UV-I 0,0 C 52 % 87 % 0 % 996,8 hPa 0,0 l/m 7,2 km/h (2 Bft) 0 min 0 min 11,6 km/h (2 Bft)
05.12.2011 05:30 14,5 C 4,7 C 0,0 UV-I 0,0 C 52 % 86 % 0 % 996,8 hPa 0,0 l/m 9,2 km/h (2 Bft) 0 min 0 min 11,6 km/h (2 Bft)
05.12.2011 05:32 14,4 C 4,7 C 0,0 UV-I 0,0 C 52 % 86 % 0 % 996,8 hPa 0,0 l/m 9,6 km/h (2 Bft) 0 min 0 min 16,4 km/h (3 Bft)
05.12.2011 05:34 14,5 C 4,7 C 0,0 UV-I 0,0 C 52 % 86 % 0 % 996,8 hPa 0,0 l/m 9,6 km/h (2 Bft) 0 min 0 min 16,4 km/h (3 Bft)
05.12.2011 05:36 14,3 C 4,7 C 0,0 UV-I 0,0 C 52 % 86 % 0 % 996,8 hPa 0,0 l/m 9,2 km/h (2 Bft) 0 min 0 min 10,3 km/h (2 Bft)
05.12.2011 05:38 14,3 C 4,6 C 0,0 UV-I 0,0 C 52 % 86 % 0 % 996,8 hPa 0,0 l/m 9,6 km/h (2 Bft) 0 min 0 min 10,3 km/h (2 Bft)
05.12.2011 05:40 14,3 C 4,5 C 0,0 UV-I 0,0 C 52 % 86 % 0 % 996,8 hPa 0,0 l/m 8,4 km/h (2 Bft) 0 min 0 min 6,4 km/h (2 Bft)
05.12.2011 05:42 14,3 C 4,5 C 0,0 UV-I 0,0 C 52 % 86 % 0 % 996,8 hPa 0,0 l/m 7,2 km/h (2 Bft) 0 min 0 min 8,0 km/h (2 Bft)
05.12.2011 05:44 14,5 C 4,5 C 0,0 UV-I 0,0 C 52 % 86 % 0 % 996,8 hPa 0,0 l/m 7,2 km/h (2 Bft) 0 min 0 min 10,0 km/h (2 Bft)
05.12.2011 05:46 14,3 C 4,5 C 0,0 UV-I 0,0 C 52 % 86 % 0 % 997,1 hPa 0,0 l/m 8,4 km/h (2 Bft) 0 min 0 min 10,0 km/h (2 Bft)
05.12.2011 05:48 14,3 C 4,5 C 0,0 UV-I 0,0 C 52 % 86 % 0 % 997,1 hPa 0,0 l/m 8,4 km/h (2 Bft) 0 min 0 min 8,7 km/h (2 Bft)
05.12.2011 05:50 14,3 C 4,7 C 0,0 UV-I 0,0 C 52 % 86 % 0 % 997,1 hPa 0,0 l/m 9,6 km/h (2 Bft) 0 min 0 min 14,2 km/h (3 Bft)
05.12.2011 05:52 14,3 C 4,7 C 0,0 UV-I 0,0 C 52 % 86 % 0 % 997,1 hPa 0,0 l/m 11,6 km/h (2 Bft) 0 min 0 min 17,4 km/h (3 Bft)
05.12.2011 05:54 14,3 C 4,7 C 0,0 UV-I 0,0 C 52 % 86 % 0 % 997,1 hPa 0,0 l/m 11,6 km/h (2 Bft) 0 min 0 min 17,4 km/h (3 Bft)
05.12.2011 05:56 14,3 C 4,6 C 0,0 UV-I 0,0 C 52 % 86 % 0 % 997,1 hPa 0,0 l/m 12,0 km/h (2 Bft) 0 min 0 min 10,6 km/h (2 Bft)
05.12.2011 05:58 14,3 C 4,7 C 0,0 UV-I 0,0 C 52 % 86 % 0 % 997,1 hPa 0,0 l/m 11,2 km/h (2 Bft) 0 min 0 min 10,6 km/h (2 Bft)
05.12.2011 06:00 14,3 C 4,7 C 0,0 UV-I 0,0 C 52 % 86 % 0 % 997,1 hPa 0,0 l/m 10,8 km/h (2 Bft) 0 min 0 min 9,7 km/h (2 Bft)
05.12.2011 06:02 14,3 C 4,7 C 0,0 UV-I 0,0 C 52 % 86 % 0 % 997,1 hPa 0,0 l/m 10,0 km/h (2 Bft) 0 min 0 min 9,7 km/h (2 Bft)
05.12.2011 06:04 14,3 C 4,7 C 0,0 UV-I 0,0 C 52 % 86 % 0 % 997,4 hPa 0,0 l/m 10,0 km/h (2 Bft) 0 min 0 min 5,8 km/h (2 Bft)
05.12.2011 06:06 14,4 C 4,7 C 0,0 UV-I 0,0 C 52 % 86 % 0 % 997,4 hPa 0,0 l/m 9,2 km/h (2 Bft) 0 min 0 min 8,4 km/h (2 Bft)
05.12.2011 06:08 14,4 C 4,6 C 0,0 UV-I 0,0 C 52 % 86 % 0 % 997,4 hPa 0,0 l/m 9,2 km/h (2 Bft) 0 min 0 min 10,6 km/h (2 Bft)
05.12.2011 06:10 14,4 C 4,6 C 0,0 UV-I 0,0 C 52 % 86 % 0 % 997,4 hPa 0,0 l/m 8,4 km/h (2 Bft) 0 min 0 min 12,9 km/h (3 Bft)
05.12.2011 06:12 14,4 C 4,7 C 0,0 UV-I 0,0 C 52 % 85 % 0 % 997,4 hPa 0,0 l/m 8,8 km/h (2 Bft) 0 min 0 min 12,9 km/h (3 Bft)
05.12.2011 06:14 14,4 C 4,6 C 0,0 UV-I 0,0 C 52 % 85 % 0 % 997,4 hPa 0,0 l/m 8,4 km/h (2 Bft) 0 min 0 min 8,0 km/h (2 Bft)
05.12.2011 06:16 14,4 C 4,6 C 0,0 UV-I 0,0 C 52 % 85 % 0 % 997,4 hPa 0,0 l/m 8,0 km/h (2 Bft) 0 min 0 min 8,0 km/h (2 Bft)
05.12.2011 06:18 14,4 C 4,5 C 0,0 UV-I 0,0 C 52 % 85 % 0 % 997,4 hPa 0,0 l/m 6,8 km/h (2 Bft) 0 min 0 min 8,0 km/h (2 Bft)
05.12.2011 06:20 14,4 C 4,5 C 0,0 UV-I 0,0 C 52 % 85 % 0 % 997,4 hPa 0,0 l/m 6,4 km/h (2 Bft) 0 min 0 min 8,0 km/h (2 Bft)
05.12.2011 06:22 14,4 C 4,5 C 0,0 UV-I 0,0 C 52 % 85 % 0 % 997,4 hPa 0,0 l/m 6,4 km/h (2 Bft) 0 min 0 min 3,9 km/h (1 Bft)
05.12.2011 06:24 14,4 C 4,4 C 0,0 UV-I 0,0 C 52 % 85 % 0 % 997,9 hPa 0,0 l/m 5,2 km/h (1 Bft) 0 min 0 min 5,1 km/h (1 Bft)
05.12.2011 06:26 14,4 C 4,5 C 0,0 UV-I 0,0 C 52 % 85 % 0 % 997,9 hPa 0,0 l/m 4,0 km/h (1 Bft) 0 min 0 min 5,1 km/h (1 Bft)
05.12.2011 06:28 14,4 C 4,4 C 0,0 UV-I 0,0 C 52 % 85 % 0 % 997,9 hPa 0,0 l/m 4,4 km/h (1 Bft) 0 min 0 min 7,1 km/h (2 Bft)
05.12.2011 06:30 14,4 C 4,3 C 0,0 UV-I 0,0 C 52 % 85 % 0 % 997,9 hPa 0,0 l/m 4,8 km/h (1 Bft) 0 min 0 min 7,7 km/h (2 Bft)
05.12.2011 06:32 14,4 C 4,3 C 0,0 UV-I 0,0 C 52 % 85 % 0 % 997,9 hPa 0,0 l/m 4,4 km/h (1 Bft) 0 min 0 min 7,7 km/h (2 Bft)
05.12.2011 06:34 14,4 C 4,3 C 0,0 UV-I 0,0 C 52 % 85 % 0 % 997,9 hPa 0,0 l/m 5,6 km/h (1 Bft) 0 min 0 min 8,4 km/h (2 Bft)
05.12.2011 06:36 14,4 C 4,3 C 0,0 UV-I 0,0 C 52 % 85 % 0 % 997,9 hPa 0,0 l/m 6,4 km/h (2 Bft) 0 min 0 min 8,4 km/h (2 Bft)
05.12.2011 06:38 14,4 C 4,3 C 0,0 UV-I 0,0 C 52 % 85 % 0 % 997,9 hPa 0,0 l/m 6,4 km/h (2 Bft) 0 min 0 min 6,1 km/h (2 Bft)
05.12.2011 06:40 14,4 C 4,3 C 0,0 UV-I 0,0 C 52 % 85 % 0 % 997,9 hPa 0,0 l/m 6,0 km/h (2 Bft) 0 min 0 min 4,2 km/h (1 Bft)
05.12.2011 06:42 14,4 C 4,2 C 0,0 UV-I 0,0 C 52 % 85 % 0 % 997,9 hPa 0,0 l/m 6,0 km/h (2 Bft) 0 min 0 min 6,8 km/h (2 Bft)
05.12.2011 06:44 14,4 C 4,3 C 0,0 UV-I 0,0 C 52 % 85 % 0 % 998,2 hPa 0,0 l/m 6,0 km/h (2 Bft) 0 min 0 min 7,4 km/h (2 Bft)
05.12.2011 06:46 14,3 C 4,3 C 0,0 UV-I 0,0 C 51 % 85 % 0 % 998,2 hPa 0,0 l/m 6,4 km/h (2 Bft) 0 min 0 min 8,4 km/h (2 Bft)
05.12.2011 06:48 14,2 C 4,3 C 0,0 UV-I 0,0 C 51 % 85 % 0 % 998,2 hPa 0,0 l/m 6,4 km/h (2 Bft) 0 min 0 min 9,7 km/h (2 Bft)
05.12.2011 06:50 14,2 C 4,3 C 0,0 UV-I 0,0 C 51 % 85 % 0 % 998,2 hPa 0,0 l/m 7,2 km/h (2 Bft) 0 min 0 min 12,6 km/h (3 Bft)
05.12.2011 06:52 14,2 C 4,2 C 0,0 UV-I 0,0 C 51 % 85 % 0 % 998,2 hPa 0,0 l/m 7,6 km/h (2 Bft) 0 min 0 min 12,6 km/h (3 Bft)
05.12.2011 06:54 14,3 C 4,3 C 0,0 UV-I 0,0 C 51 % 84 % 0 % 998,2 hPa 0,0 l/m 8,0 km/h (2 Bft) 0 min 0 min 11,9 km/h (2 Bft)
05.12.2011 06:56 14,3 C 4,3 C 0,0 UV-I 0,0 C 51 % 84 % 0 % 998,2 hPa 0,0 l/m 8,0 km/h (2 Bft) 0 min 0 min 11,9 km/h (2 Bft)
05.12.2011 06:58 14,3 C 4,2 C 0,0 UV-I 0,0 C 51 % 84 % 0 % 998,2 hPa 0,0 l/m 8,8 km/h (2 Bft) 0 min 0 min 13,8 km/h (3 Bft)
05.12.2011 07:00 14,3 C 4,3 C 0,0 UV-I 0,0 C 51 % 84 % 0 % 998,2 hPa 0,0 l/m 9,2 km/h (2 Bft) 0 min 0 min 13,8 km/h (3 Bft)
05.12.2011 07:02 14,3 C 4,2 C 0,0 UV-I 0,0 C 51 % 84 % 0 % 998,2 hPa 0,0 l/m 9,2 km/h (2 Bft) 0 min 0 min 11,9 km/h (2 Bft)
05.12.2011 07:04 14,3 C 4,2 C 0,0 UV-I 0,0 C 51 % 84 % 0 % 998,2 hPa 0,0 l/m 10,4 km/h (2 Bft) 0 min 0 min 7,4 km/h (2 Bft)
05.12.2011 07:06 14,1 C 4,3 C 0,0 UV-I 0,0 C 51 % 84 % 0 % 998,8 hPa 0,0 l/m 10,0 km/h (2 Bft) 0 min 0 min 11,6 km/h (2 Bft)
05.12.2011 07:08 14,1 C 4,3 C 0,0 UV-I 0,0 C 51 % 84 % 0 % 998,8 hPa 0,0 l/m 10,4 km/h (2 Bft) 0 min 0 min 26,4 km/h (4 Bft)
05.12.2011 07:10 14,2 C 4,3 C 0,0 UV-I 0,0 C 51 % 84 % 0 % 998,8 hPa 0,0 l/m 10,8 km/h (2 Bft) 0 min 0 min 26,4 km/h (4 Bft)
05.12.2011 07:12 14,1 C 4,3 C 0,0 UV-I 0,0 C 51 % 84 % 0 % 998,8 hPa 0,0 l/m 11,6 km/h (2 Bft) 0 min 0 min 10,3 km/h (2 Bft)
05.12.2011 07:14 14,2 C 4,3 C 0,0 UV-I 0,0 C 51 % 84 % 0 % 998,8 hPa 0,0 l/m 11,2 km/h (2 Bft) 0 min 0 min 10,3 km/h (2 Bft)
05.12.2011 07:16 14,2 C 4,2 C 0,0 UV-I 0,0 C 51 % 84 % 0 % 998,8 hPa 0,0 l/m 11,2 km/h (2 Bft) 0 min 0 min 9,0 km/h (2 Bft)
05.12.2011 07:18 14,2 C 4,3 C 0,0 UV-I 0,0 C 51 % 84 % 0 % 998,8 hPa 0,0 l/m 10,0 km/h (2 Bft) 0 min 0 min 9,0 km/h (2 Bft)
05.12.2011 07:20 14,2 C 4,3 C 0,0 UV-I 0,0 C 51 % 84 % 0 % 998,8 hPa 0,0 l/m 8,0 km/h (2 Bft) 0 min 0 min 5,5 km/h (1 Bft)
05.12.2011 07:22 14,2 C 4,2 C 0,0 UV-I 0,0 C 51 % 84 % 0 % 998,8 hPa 0,0 l/m 6,8 km/h (2 Bft) 0 min 0 min 5,5 km/h (1 Bft)
05.12.2011 07:24 14,2 C 4,1 C 0,0 UV-I 0,0 C 51 % 84 % 0 % 999,1 hPa 0,0 l/m 6,0 km/h (2 Bft) 0 min 0 min 12,9 km/h (3 Bft)
05.12.2011 07:26 14,2 C 4,1 C 0,0 UV-I 0,0 C 51 % 84 % 0 % 999,1 hPa 0,0 l/m 6,4 km/h (2 Bft) 0 min 0 min 12,9 km/h (3 Bft)
05.12.2011 07:28 14,2 C 4,1 C 0,0 UV-I 0,0 C 51 % 85 % 0 % 999,1 hPa 0,0 l/m 6,4 km/h (2 Bft) 0 min 0 min 11,9 km/h (2 Bft)
05.12.2011 07:30 14,2 C 4,1 C 0,0 UV-I 0,0 C 51 % 85 % 0 % 999,1 hPa 0,0 l/m 7,2 km/h (2 Bft) 0 min 0 min 9,7 km/h (2 Bft)
05.12.2011 07:32 14,2 C 4,1 C 0,0 UV-I 0,0 C 51 % 85 % 0 % 999,1 hPa 0,0 l/m 7,6 km/h (2 Bft) 0 min 0 min 10,0 km/h (2 Bft)
05.12.2011 07:34 14,2 C 4,1 C 0,0 UV-I 0,0 C 51 % 85 % 0 % 999,1 hPa 0,0 l/m 8,4 km/h (2 Bft) 0 min 0 min 10,0 km/h (2 Bft)
05.12.2011 07:36 14,2 C 4,0 C 0,0 UV-I 0,0 C 51 % 85 % 0 % 999,1 hPa 0,0 l/m 8,8 km/h (2 Bft) 0 min 0 min 18,7 km/h (3 Bft)
05.12.2011 07:38 14,2 C 4,0 C 0,0 UV-I 0,0 C 51 % 85 % 0 % 999,1 hPa 0,0 l/m 8,4 km/h (2 Bft) 0 min 0 min 18,7 km/h (3 Bft)
05.12.2011 07:40 14,2 C 4,0 C 0,0 UV-I 0,0 C 51 % 85 % 0 % 999,1 hPa 0,0 l/m 8,8 km/h (2 Bft) 0 min 0 min 8,4 km/h (2 Bft)
05.12.2011 07:42 14,2 C 4,0 C 0,0 UV-I 0,0 C 51 % 85 % 0 % 999,1 hPa 0,0 l/m 8,4 km/h (2 Bft) 0 min 0 min 17,1 km/h (3 Bft)
05.12.2011 07:44 14,1 C 4,0 C 0,0 UV-I 0,0 C 51 % 85 % 0 % 999,1 hPa 0,0 l/m 9,2 km/h (2 Bft) 0 min 0 min 24,8 km/h (4 Bft)
05.12.2011 07:46 14,2 C 4,0 C 0,0 UV-I 0,0 C 51 % 85 % 0 % 999,7 hPa 0,0 l/m 10,4 km/h (2 Bft) 0 min 0 min 27,4 km/h (4 Bft)
05.12.2011 07:48 14,1 C 4,0 C 0,0 UV-I 0,0 C 51 % 85 % 0 % 999,7 hPa 0,0 l/m 10,0 km/h (2 Bft) 0 min 0 min 27,4 km/h (4 Bft)
05.12.2011 07:50 14,1 C 4,0 C 0,0 UV-I 0,0 C 51 % 85 % 0 % 999,7 hPa 0,0 l/m 9,6 km/h (2 Bft) 0 min 0 min 11,3 km/h (2 Bft)
05.12.2011 07:52 14,1 C 4,0 C 0,0 UV-I 0,0 C 51 % 85 % 0 % 999,7 hPa 0,0 l/m 9,6 km/h (2 Bft) 0 min 0 min 11,3 km/h (2 Bft)
05.12.2011 07:54 14,1 C 4,0 C 0,0 UV-I 0,0 C 51 % 85 % 0 % 999,7 hPa 0,0 l/m 9,6 km/h (2 Bft) 0 min 0 min 4,8 km/h (1 Bft)
05.12.2011 07:56 14,1 C 4,0 C 0,0 UV-I 0,0 C 51 % 85 % 0 % 999,7 hPa 0,0 l/m 8,0 km/h (2 Bft) 0 min 0 min 11,6 km/h (2 Bft)
05.12.2011 07:58 14,1 C 4,0 C 0,0 UV-I 0,0 C 51 % 84 % 0 % 999,7 hPa 0,0 l/m 8,0 km/h (2 Bft) 0 min 0 min 13,8 km/h (3 Bft)
05.12.2011 08:00 14,1 C 4,0 C 0,0 UV-I 0,0 C 51 % 85 % 0 % 999,7 hPa 0,0 l/m 8,0 km/h (2 Bft) 0 min 0 min 13,8 km/h (3 Bft)
05.12.2011 08:02 14,1 C 4,1 C 0,0 UV-I 0,0 C 51 % 84 % 0 % 999,7 hPa 0,0 l/m 8,8 km/h (2 Bft) 0 min 0 min 12,6 km/h (3 Bft)
05.12.2011 08:04 14,1 C 4,0 C 0,0 UV-I 0,0 C 51 % 85 % 0 % 1000,2 hPa 0,0 l/m 8,4 km/h (2 Bft) 0 min 0 min 6,4 km/h (2 Bft)
05.12.2011 08:06 14,1 C 4,0 C 0,0 UV-I 0,0 C 51 % 84 % 0 % 1000,2 hPa 0,0 l/m 8,8 km/h (2 Bft) 0 min 0 min 9,3 km/h (2 Bft)
05.12.2011 08:08 14,1 C 4,0 C 0,0 UV-I 0,0 C 51 % 84 % 0 % 1000,2 hPa 0,0 l/m 8,0 km/h (2 Bft) 0 min 0 min 9,3 km/h (2 Bft)
05.12.2011 08:10 14,1 C 3,9 C 0,0 UV-I 0,0 C 51 % 85 % 0 % 1000,2 hPa 0,0 l/m 7,2 km/h (2 Bft) 0 min 0 min 9,0 km/h (2 Bft)
05.12.2011 08:12 14,1 C 3,9 C 0,0 UV-I 0,0 C 51 % 85 % 0 % 1000,2 hPa 0,0 l/m 6,8 km/h (2 Bft) 0 min 0 min 9,0 km/h (2 Bft)
05.12.2011 08:14 13,9 C 3,9 C 0,0 UV-I 0,0 C 51 % 85 % 0 % 1000,2 hPa 0,0 l/m 6,8 km/h (2 Bft) 0 min 0 min 15,1 km/h (3 Bft)
05.12.2011 08:16 13,9 C 3,9 C 0,0 UV-I 0,0 C 50 % 85 % 0 % 1000,2 hPa 0,0 l/m 7,2 km/h (2 Bft) 0 min 0 min 15,1 km/h (3 Bft)
05.12.2011 08:18 13,9 C 3,9 C 0,0 UV-I 0,0 C 50 % 85 % 0 % 1000,2 hPa 0,0 l/m 7,2 km/h (2 Bft) 0 min 0 min 13,2 km/h (3 Bft)
05.12.2011 08:20 13,9 C 3,9 C 0,0 UV-I 0,0 C 51 % 85 % 0 % 1000,2 hPa 0,0 l/m 7,6 km/h (2 Bft) 0 min 0 min 12,6 km/h (3 Bft)
05.12.2011 08:22 14,1 C 3,8 C 0,0 UV-I 0,0 C 50 % 85 % 0 % 1000,2 hPa 0,0 l/m 7,6 km/h (2 Bft) 0 min 0 min 6,1 km/h (2 Bft)
05.12.2011 08:24 14,1 C 3,9 C 0,0 UV-I 0,0 C 50 % 85 % 0 % 1000,2 hPa 0,0 l/m 8,4 km/h (2 Bft) 0 min 0 min 10,6 km/h (2 Bft)
05.12.2011 08:26 13,9 C 3,9 C 0,0 UV-I 0,0 C 50 % 85 % 0 % 1000,3 hPa 0,0 l/m 8,8 km/h (2 Bft) 0 min 0 min 10,6 km/h (2 Bft)
05.12.2011 08:28 13,9 C 3,9 C 0,0 UV-I 0,0 C 50 % 84 % 0 % 1000,3 hPa 0,0 l/m 8,8 km/h (2 Bft) 0 min 0 min 8,4 km/h (2 Bft)
05.12.2011 08:30 13,9 C 3,9 C 0,0 UV-I 0,0 C 50 % 84 % 0 % 1000,3 hPa 0,0 l/m 8,8 km/h (2 Bft) 0 min 0 min 8,4 km/h (2 Bft)
05.12.2011 08:32 13,9 C 3,9 C 0,0 UV-I 0,0 C 50 % 84 % 0 % 1000,3 hPa 0,0 l/m 8,4 km/h (2 Bft) 0 min 0 min 5,1 km/h (1 Bft)
05.12.2011 08:34 13,9 C 3,9 C 0,0 UV-I 0,0 C 50 % 84 % 0 % 1000,3 hPa 0,0 l/m 8,8 km/h (2 Bft) 0 min 0 min 12,9 km/h (3 Bft)
05.12.2011 08:36 13,9 C 3,7 C 0,0 UV-I 0,0 C 50 % 84 % 0 % 1000,3 hPa 0,0 l/m 7,2 km/h (2 Bft) 0 min 0 min 12,9 km/h (3 Bft)
05.12.2011 08:38 14,0 C 3,7 C 0,0 UV-I 0,0 C 50 % 84 % 0 % 1000,3 hPa 0,0 l/m 6,8 km/h (2 Bft) 0 min 0 min 7,4 km/h (2 Bft)
05.12.2011 08:40 13,9 C 3,7 C 0,0 UV-I 0,0 C 50 % 85 % 0 % 1000,3 hPa 0,0 l/m 6,8 km/h (2 Bft) 0 min 0 min 9,3 km/h (2 Bft)
05.12.2011 08:42 14,0 C 3,7 C 0,0 UV-I 0,0 C 50 % 85 % 0 % 1000,3 hPa 0,0 l/m 6,8 km/h (2 Bft) 0 min 0 min 9,7 km/h (2 Bft)
05.12.2011 08:44 13,9 C 3,7 C 0,0 UV-I 0,0 C 50 % 85 % 0 % 1000,3 hPa 0,0 l/m 6,8 km/h (2 Bft) 0 min 0 min 11,9 km/h (2 Bft)
05.12.2011 08:46 13,9 C 3,7 C 0,0 UV-I 0,0 C 50 % 85 % 0 % 1000,6 hPa 0,0 l/m 7,6 km/h (2 Bft) 0 min 0 min 11,9 km/h (2 Bft)
05.12.2011 08:48 13,9 C 3,7 C 0,0 UV-I 0,0 C 50 % 85 % 0 % 1000,6 hPa 0,0 l/m 8,8 km/h (2 Bft) 0 min 0 min 9,7 km/h (2 Bft)
05.12.2011 08:50 14,0 C 3,7 C 0,0 UV-I 0,0 C 50 % 85 % 0 % 1000,6 hPa 0,0 l/m 9,2 km/h (2 Bft) 0 min 0 min 11,3 km/h (2 Bft)
05.12.2011 08:52 14,0 C 3,7 C 0,0 UV-I 0,0 C 50 % 85 % 0 % 1000,6 hPa 0,0 l/m 9,2 km/h (2 Bft) 0 min 0 min 11,3 km/h (2 Bft)
05.12.2011 08:54 13,9 C 3,8 C 0,0 UV-I 0,0 C 50 % 85 % 0 % 1000,6 hPa 0,0 l/m 10,4 km/h (2 Bft) 0 min 0 min 8,7 km/h (2 Bft)
05.12.2011 08:56 13,9 C 3,7 C 0,0 UV-I 0,0 C 50 % 85 % 0 % 1000,6 hPa 0,0 l/m 9,2 km/h (2 Bft) 0 min 0 min 8,7 km/h (2 Bft)
05.12.2011 08:58 13,9 C 3,8 C 0,0 UV-I 0,0 C 50 % 85 % 0 % 1000,6 hPa 0,0 l/m 9,2 km/h (2 Bft) 0 min 0 min 10,3 km/h (2 Bft)
05.12.2011 09:00 14,0 C 3,7 C 0,0 UV-I 0,0 C 50 % 85 % 0 % 1000,6 hPa 0,0 l/m 8,8 km/h (2 Bft) 0 min 0 min 15,4 km/h (3 Bft)
05.12.2011 09:02 13,9 C 3,7 C 0,0 UV-I 0,0 C 50 % 85 % 0 % 1000,6 hPa 0,0 l/m 8,4 km/h (2 Bft) 0 min 0 min 15,4 km/h (3 Bft)
05.12.2011 09:04 14,0 C 3,7 C 0,0 UV-I 0,0 C 50 % 85 % 0 % 1000,6 hPa 0,0 l/m 8,4 km/h (2 Bft) 0 min 0 min 12,9 km/h (3 Bft)
05.12.2011 09:06 13,9 C 3,6 C 0,0 UV-I 0,0 C 50 % 85 % 0 % 1000,6 hPa 0,0 l/m 8,0 km/h (2 Bft) 0 min 0 min 12,9 km/h (3 Bft)
05.12.2011 09:08 14,0 C 3,6 C 0,0 UV-I 0,0 C 50 % 85 % 0 % 1000,6 hPa 0,0 l/m 8,0 km/h (2 Bft) 0 min 0 min 9,7 km/h (2 Bft)
05.12.2011 09:10 14,0 C 3,7 C 0,0 UV-I 0,0 C 50 % 85 % 0 % 1000,6 hPa 0,0 l/m 8,4 km/h (2 Bft) 0 min 0 min 9,7 km/h (2 Bft)
05.12.2011 09:12 14,0 C 3,8 C 0,0 UV-I 0,0 C 50 % 85 % 0 % 1000,6 hPa 0,0 l/m 8,0 km/h (2 Bft) 0 min 0 min 16,1 km/h (3 Bft)
05.12.2011 09:14 14,0 C 3,7 C 0,0 UV-I 0,0 C 50 % 85 % 0 % 1000,6 hPa 0,0 l/m 8,8 km/h (2 Bft) 0 min 0 min 16,1 km/h (3 Bft)
05.12.2011 09:16 14,0 C 3,8 C 0,0 UV-I 0,0 C 50 % 85 % 0 % 1000,6 hPa 0,0 l/m 9,2 km/h (2 Bft) 0 min 0 min 7,1 km/h (2 Bft)
05.12.2011 09:18 14,0 C 3,9 C 0,0 UV-I 0,0 C 50 % 85 % 0 % 1000,6 hPa 0,0 l/m 9,6 km/h (2 Bft) 0 min 0 min 7,4 km/h (2 Bft)
05.12.2011 09:20 14,0 C 3,9 C 0,0 UV-I 0,0 C 50 % 85 % 0 % 1000,6 hPa 0,0 l/m 9,6 km/h (2 Bft) 0 min 0 min 12,6 km/h (3 Bft)
05.12.2011 09:22 14,0 C 3,9 C 0,0 UV-I 0,0 C 50 % 85 % 0 % 1000,6 hPa 0,0 l/m 9,6 km/h (2 Bft) 0 min 0 min 12,6 km/h (3 Bft)
05.12.2011 09:24 14,0 C 3,9 C 0,0 UV-I 0,0 C 50 % 85 % 0 % 1000,9 hPa 0,0 l/m 9,2 km/h (2 Bft) 0 min 0 min 10,9 km/h (2 Bft)
05.12.2011 09:26 14,0 C 3,8 C 0,0 UV-I 0,0 C 50 % 85 % 0 % 1000,9 hPa 0,0 l/m 9,2 km/h (2 Bft) 0 min 0 min 16,7 km/h (3 Bft)
05.12.2011 09:28 14,0 C 3,9 C 0,0 UV-I 0,0 C 50 % 85 % 0 % 1000,9 hPa 0,0 l/m 9,2 km/h (2 Bft) 0 min 0 min 16,7 km/h (3 Bft)
05.12.2011 09:30 14,0 C 3,8 C 0,0 UV-I 0,0 C 50 % 85 % 0 % 1000,9 hPa 0,0 l/m 10,0 km/h (2 Bft) 0 min 0 min 10,3 km/h (2 Bft)
05.12.2011 09:32 14,0 C 3,9 C 0,0 UV-I 0,0 C 50 % 85 % 0 % 1000,9 hPa 0,0 l/m 9,6 km/h (2 Bft) 0 min 0 min 17,7 km/h (3 Bft)
05.12.2011 09:34 14,0 C 3,9 C 0,0 UV-I 0,0 C 50 % 85 % 0 % 1000,9 hPa 0,0 l/m 10,0 km/h (2 Bft) 0 min 0 min 17,7 km/h (3 Bft)
05.12.2011 09:36 14,0 C 3,9 C 0,0 UV-I 0,0 C 50 % 85 % 0 % 1000,9 hPa 0,0 l/m 10,0 km/h (2 Bft) 0 min 0 min 6,8 km/h (2 Bft)
05.12.2011 09:38 14,0 C 3,9 C 0,0 UV-I 0,1 C 50 % 85 % 3 % 1000,9 hPa 0,0 l/m 9,6 km/h (2 Bft) 0 min 0 min 8,0 km/h (2 Bft)
05.12.2011 09:40 14,0 C 3,9 C 0,0 UV-I 0,4 C 50 % 85 % 11 % 1000,9 hPa 0,0 l/m 9,6 km/h (2 Bft) 0 min 0 min 10,9 km/h (2 Bft)
05.12.2011 09:42 14,0 C 3,9 C 0,0 UV-I 0,8 C 50 % 85 % 23 % 1000,9 hPa 0,0 l/m 9,6 km/h (2 Bft) 0 min 0 min 21,9 km/h (4 Bft)
05.12.2011 09:44 14,0 C 3,9 C 0,0 UV-I 1,1 C 50 % 85 % 31 % 1000,9 hPa 0,0 l/m 9,6 km/h (2 Bft) 0 min 0 min 21,9 km/h (4 Bft)
05.12.2011 09:46 14,0 C 3,9 C 0,0 UV-I 1,0 C 50 % 85 % 29 % 1001,4 hPa 0,0 l/m 11,2 km/h (2 Bft) 0 min 0 min 12,2 km/h (2 Bft)
05.12.2011 09:48 14,0 C 4,0 C 0,0 UV-I 1,2 C 50 % 85 % 34 % 1001,4 hPa 0,0 l/m 11,2 km/h (2 Bft) 0 min 0 min 12,2 km/h (2 Bft)
05.12.2011 09:50 14,0 C 4,0 C 0,0 UV-I 1,3 C 50 % 85 % 37 % 1001,4 hPa 0,0 l/m 11,2 km/h (2 Bft) 0 min 0 min 11,6 km/h (2 Bft)
05.12.2011 09:52 13,8 C 4,1 C 0,0 UV-I 1,3 C 50 % 85 % 37 % 1001,4 hPa 0,0 l/m 11,6 km/h (2 Bft) 0 min 0 min 19,0 km/h (3 Bft)
05.12.2011 09:54 14,0 C 4,0 C 0,0 UV-I 1,5 C 50 % 85 % 43 % 1001,4 hPa 0,0 l/m 12,0 km/h (2 Bft) 2 min 0 min 19,0 km/h (3 Bft)
05.12.2011 09:56 13,8 C 4,1 C 0,0 UV-I 1,7 C 50 % 85 % 49 % 1001,4 hPa 0,0 l/m 11,6 km/h (2 Bft) 2 min 0 min 13,5 km/h (3 Bft)
05.12.2011 09:58 14,0 C 4,1 C 0,0 UV-I 1,7 C 50 % 84 % 49 % 1001,4 hPa 0,0 l/m 11,2 km/h (2 Bft) 2 min 0 min 11,6 km/h (2 Bft)
05.12.2011 10:00 13,8 C 4,1 C 0,0 UV-I 1,7 C 50 % 85 % 49 % 1001,4 hPa 0,0 l/m 12,0 km/h (2 Bft) 2 min 0 min 13,5 km/h (3 Bft)
05.12.2011 10:02 13,8 C 4,2 C 0,0 UV-I 1,7 C 50 % 84 % 49 % 1001,4 hPa 0,0 l/m 12,0 km/h (2 Bft) 2 min 0 min 13,5 km/h (3 Bft)
05.12.2011 10:04 13,8 C 4,2 C 0,0 UV-I 2,0 C 50 % 85 % 57 % 1001,8 hPa 0,0 l/m 11,6 km/h (2 Bft) 2 min 0 min 12,9 km/h (3 Bft)
05.12.2011 10:06 13,8 C 4,3 C 0,0 UV-I 2,0 C 50 % 84 % 57 % 1001,8 hPa 0,0 l/m 11,2 km/h (2 Bft) 2 min 0 min 12,9 km/h (3 Bft)
05.12.2011 10:08 13,8 C 4,2 C 0,0 UV-I 2,4 C 50 % 84 % 69 % 1001,8 hPa 0,0 l/m 10,8 km/h (2 Bft) 2 min 0 min 10,0 km/h (2 Bft)
05.12.2011 10:10 13,8 C 4,3 C 0,0 UV-I 2,5 C 50 % 84 % 71 % 1001,8 hPa 0,0 l/m 10,4 km/h (2 Bft) 2 min 0 min 19,3 km/h (3 Bft)
05.12.2011 10:12 13,8 C 4,4 C 0,0 UV-I 2,5 C 50 % 84 % 71 % 1001,8 hPa 0,0 l/m 10,0 km/h (2 Bft) 2 min 0 min 19,3 km/h (3 Bft)
05.12.2011 10:14 13,8 C 4,3 C 0,0 UV-I 2,7 C 50 % 84 % 77 % 1001,8 hPa 0,0 l/m 10,0 km/h (2 Bft) 2 min 0 min 7,7 km/h (2 Bft)
05.12.2011 10:16 14,0 C 4,4 C 0,0 UV-I 2,8 C 50 % 84 % 80 % 1001,8 hPa 0,0 l/m 10,0 km/h (2 Bft) 2 min 0 min 31,2 km/h (5 Bft)
05.12.2011 10:18 13,8 C 4,4 C 0,0 UV-I 2,8 C 50 % 84 % 80 % 1001,8 hPa 0,0 l/m 10,8 km/h (2 Bft) 2 min 0 min 31,2 km/h (5 Bft)
05.12.2011 10:20 13,9 C 4,4 C 0,0 UV-I 2,6 C 50 % 84 % 74 % 1001,8 hPa 0,0 l/m 11,6 km/h (2 Bft) 2 min 0 min 14,5 km/h (3 Bft)
05.12.2011 10:22 13,9 C 4,4 C 0,0 UV-I 2,5 C 50 % 84 % 71 % 1001,8 hPa 0,0 l/m 12,0 km/h (2 Bft) 2 min 0 min 22,2 km/h (4 Bft)
05.12.2011 10:24 13,9 C 4,4 C 0,0 UV-I 2,7 C 50 % 84 % 77 % 1002,1 hPa 0,0 l/m 12,0 km/h (2 Bft) 2 min 0 min 22,2 km/h (4 Bft)
05.12.2011 10:26 13,8 C 4,5 C 0,0 UV-I 2,6 C 50 % 84 % 74 % 1002,1 hPa 0,0 l/m 13,3 km/h (3 Bft) 2 min 0 min 17,4 km/h (3 Bft)
05.12.2011 10:28 13,9 C 4,5 C 0,0 UV-I 2,6 C 50 % 83 % 74 % 1002,1 hPa 0,0 l/m 12,8 km/h (3 Bft) 2 min 0 min 17,4 km/h (3 Bft)
05.12.2011 10:30 13,9 C 4,6 C 0,0 UV-I 2,5 C 50 % 83 % 71 % 1002,1 hPa 0,0 l/m 13,3 km/h (3 Bft) 2 min 0 min 14,8 km/h (3 Bft)
05.12.2011 10:32 13,8 C 4,7 C 0,0 UV-I 2,5 C 50 % 83 % 71 % 1002,1 hPa 0,0 l/m 12,4 km/h (3 Bft) 2 min 0 min 15,4 km/h (3 Bft)
05.12.2011 10:34 13,9 C 4,7 C 0,0 UV-I 2,6 C 50 % 83 % 74 % 1002,1 hPa 0,0 l/m 12,8 km/h (3 Bft) 2 min 0 min 15,4 km/h (3 Bft)
05.12.2011 10:36 13,8 C 4,7 C 0,0 UV-I 2,6 C 50 % 83 % 74 % 1002,1 hPa 0,0 l/m 12,4 km/h (3 Bft) 2 min 0 min 19,0 km/h (3 Bft)
05.12.2011 10:38 13,9 C 4,7 C 0,0 UV-I 3,0 C 50 % 83 % 86 % 1002,1 hPa 0,0 l/m 11,6 km/h (2 Bft) 2 min 0 min 19,0 km/h (3 Bft)
05.12.2011 10:40 13,9 C 4,9 C 0,0 UV-I 2,9 C 50 % 83 % 83 % 1002,1 hPa 0,0 l/m 11,2 km/h (2 Bft) 2 min 0 min 10,6 km/h (2 Bft)
05.12.2011 10:42 13,9 C 4,9 C 0,0 UV-I 3,0 C 50 % 83 % 86 % 1002,1 hPa 0,0 l/m 11,2 km/h (2 Bft) 2 min 0 min 10,6 km/h (2 Bft)
05.12.2011 10:44 13,9 C 4,8 C 0,0 UV-I 3,3 C 50 % 83 % 94 % 1002,1 hPa 0,0 l/m 10,4 km/h (2 Bft) 2 min 0 min 20,3 km/h (4 Bft)
05.12.2011 10:46 13,9 C 4,9 C 0,0 UV-I 3,2 C 50 % 83 % 91 % 1002,3 hPa 0,0 l/m 10,4 km/h (2 Bft) 2 min 0 min 20,3 km/h (4 Bft)
05.12.2011 10:48 13,8 C 4,9 C 0,0 UV-I 3,4 C 50 % 83 % 97 % 1002,3 hPa 0,0 l/m 9,6 km/h (2 Bft) 2 min 0 min 17,1 km/h (3 Bft)
05.12.2011 10:50 13,9 C 4,9 C 0,0 UV-I 3,3 C 50 % 83 % 94 % 1002,3 hPa 0,0 l/m 10,4 km/h (2 Bft) 2 min 0 min 12,9 km/h (3 Bft)
05.12.2011 10:52 13,8 C 4,9 C 0,0 UV-I 3,2 C 50 % 83 % 91 % 1002,3 hPa 0,0 l/m 11,2 km/h (2 Bft) 2 min 0 min 13,5 km/h (3 Bft)
05.12.2011 10:54 13,9 C 5,0 C 0,0 UV-I 3,2 C 50 % 84 % 91 % 1002,3 hPa 0,0 l/m 11,6 km/h (2 Bft) 2 min 0 min 23,8 km/h (4 Bft)
05.12.2011 10:56 13,8 C 5,0 C 0,0 UV-I 3,2 C 50 % 83 % 91 % 1002,3 hPa 0,0 l/m 11,6 km/h (2 Bft) 2 min 0 min 23,8 km/h (4 Bft)
05.12.2011 10:58 13,8 C 5,0 C 0,0 UV-I 3,2 C 50 % 83 % 91 % 1002,3 hPa 0,0 l/m 11,6 km/h (2 Bft) 2 min 0 min 16,1 km/h (3 Bft)
05.12.2011 11:00 13,9 C 5,1 C 0,0 UV-I 2,6 C 50 % 83 % 74 % 1002,3 hPa 0,0 l/m 12,8 km/h (3 Bft) 2 min 0 min 12,6 km/h (3 Bft)
05.12.2011 11:02 13,8 C 5,1 C 0,1 UV-I 2,4 C 50 % 83 % 69 % 1002,3 hPa 0,0 l/m 12,4 km/h (3 Bft) 2 min 0 min 18,3 km/h (3 Bft)
05.12.2011 11:04 13,8 C 5,1 C 0,1 UV-I 2,4 C 50 % 83 % 69 % 1002,3 hPa 0,0 l/m 12,4 km/h (3 Bft) 2 min 0 min 7,7 km/h (2 Bft)
05.12.2011 11:06 13,8 C 5,1 C 0,1 UV-I 2,6 C 50 % 83 % 74 % 1002,3 hPa 0,0 l/m 12,4 km/h (3 Bft) 2 min 0 min 17,4 km/h (3 Bft)
05.12.2011 11:08 13,9 C 5,1 C 0,1 UV-I 2,7 C 50 % 83 % 77 % 1002,3 hPa 0,0 l/m 12,4 km/h (3 Bft) 2 min 0 min 17,4 km/h (3 Bft)
05.12.2011 11:10 13,8 C 5,3 C 0,1 UV-I 2,9 C 50 % 83 % 83 % 1002,3 hPa 0,0 l/m 11,2 km/h (2 Bft) 2 min 0 min 11,9 km/h (2 Bft)
05.12.2011 11:12 13,8 C 5,2 C 0,3 UV-I 3,3 C 50 % 83 % 94 % 1002,3 hPa 0,0 l/m 10,8 km/h (2 Bft) 2 min 0 min 7,1 km/h (2 Bft)
05.12.2011 11:14 13,8 C 5,2 C 0,3 UV-I 3,5 C 50 % 83 % 100 % 1002,3 hPa 0,0 l/m 11,2 km/h (2 Bft) 2 min 0 min 26,7 km/h (4 Bft)
05.12.2011 11:16 13,8 C 5,2 C 0,3 UV-I 3,5 C 50 % 82 % 100 % 1002,3 hPa 0,0 l/m 11,2 km/h (2 Bft) 2 min 0 min 26,7 km/h (4 Bft)
05.12.2011 11:18 13,8 C 5,3 C 0,3 UV-I 3,4 C 50 % 83 % 97 % 1002,3 hPa 0,0 l/m 11,6 km/h (2 Bft) 2 min 0 min 10,9 km/h (2 Bft)
05.12.2011 11:20 14,0 C 5,3 C 0,3 UV-I 3,7 C 50 % 83 % 100 % 1002,3 hPa 0,0 l/m 11,2 km/h (2 Bft) 2 min 0 min 9,7 km/h (2 Bft)
05.12.2011 11:22 14,0 C 5,4 C 0,1 UV-I 3,2 C 50 % 82 % 91 % 1002,3 hPa 0,0 l/m 11,6 km/h (2 Bft) 2 min 0 min 7,7 km/h (2 Bft)
05.12.2011 11:24 14,0 C 5,4 C 0,1 UV-I 2,6 C 50 % 82 % 74 % 1002,3 hPa 0,0 l/m 11,6 km/h (2 Bft) 2 min 0 min 7,7 km/h (2 Bft)
05.12.2011 11:26 14,0 C 5,4 C 0,1 UV-I 2,3 C 50 % 82 % 66 % 1002,4 hPa 0,0 l/m 11,6 km/h (2 Bft) 2 min 0 min 11,6 km/h (2 Bft)
05.12.2011 11:28 14,0 C 5,3 C 0,1 UV-I 2,0 C 50 % 82 % 57 % 1002,4 hPa 0,0 l/m 11,6 km/h (2 Bft) 0 min 0 min 11,6 km/h (2 Bft)
05.12.2011 11:30 14,0 C 5,5 C 0,1 UV-I 1,3 C 50 % 82 % 37 % 1002,4 hPa 0,0 l/m 12,8 km/h (3 Bft) 0 min 0 min 41,5 km/h (6 Bft)
05.12.2011 11:32 14,0 C 5,5 C 0,4 UV-I 1,3 C 50 % 82 % 37 % 1002,4 hPa 0,0 l/m 12,8 km/h (3 Bft) 0 min 0 min 41,5 km/h (6 Bft)
05.12.2011 11:34 14,0 C 5,5 C 0,4 UV-I 1,7 C 50 % 82 % 49 % 1002,4 hPa 0,0 l/m 12,4 km/h (3 Bft) 0 min 0 min 8,7 km/h (2 Bft)
05.12.2011 11:36 14,0 C 5,5 C 0,4 UV-I 2,2 C 50 % 82 % 63 % 1002,4 hPa 0,0 l/m 12,8 km/h (3 Bft) 0 min 0 min 12,2 km/h (2 Bft)
05.12.2011 11:38 14,0 C 5,6 C 0,1 UV-I 2,1 C 50 % 81 % 60 % 1002,4 hPa 0,0 l/m 12,8 km/h (3 Bft) 0 min 0 min 12,2 km/h (2 Bft)
05.12.2011 11:40 14,0 C 5,5 C 0,1 UV-I 1,9 C 50 % 81 % 54 % 1002,4 hPa 0,0 l/m 12,8 km/h (3 Bft) 0 min 0 min 9,3 km/h (2 Bft)
05.12.2011 11:42 13,9 C 5,5 C 0,3 UV-I 1,3 C 50 % 81 % 37 % 1002,4 hPa 0,0 l/m 12,8 km/h (3 Bft) 0 min 0 min 12,9 km/h (3 Bft)
05.12.2011 11:44 13,9 C 5,6 C 0,3 UV-I 1,0 C 50 % 81 % 29 % 1003,0 hPa 0,0 l/m 12,8 km/h (3 Bft) 0 min 0 min 12,9 km/h (3 Bft)
05.12.2011 11:46 13,9 C 5,5 C 0,3 UV-I 1,4 C 50 % 81 % 40 % 1003,0 hPa 0,0 l/m 12,4 km/h (3 Bft) 0 min 0 min 18,0 km/h (3 Bft)
05.12.2011 11:48 13,9 C 5,5 C 0,4 UV-I 1,6 C 50 % 81 % 46 % 1003,0 hPa 0,0 l/m 13,3 km/h (3 Bft) 0 min 0 min 18,0 km/h (3 Bft)
05.12.2011 11:50 13,9 C 5,6 C 0,4 UV-I 1,6 C 50 % 81 % 46 % 1003,0 hPa 0,0 l/m 13,7 km/h (3 Bft) 0 min 0 min 27,7 km/h (4 Bft)
05.12.2011 11:52 13,9 C 5,7 C 0,4 UV-I 1,8 C 50 % 81 % 51 % 1003,0 hPa 0,0 l/m 13,3 km/h (3 Bft) 0 min 0 min 10,6 km/h (2 Bft)
05.12.2011 11:54 13,9 C 5,7 C 0,4 UV-I 2,0 C 49 % 81 % 57 % 1003,0 hPa 0,0 l/m 14,5 km/h (3 Bft) 0 min 0 min 17,7 km/h (3 Bft)
05.12.2011 11:56 13,9 C 5,6 C 0,4 UV-I 2,4 C 49 % 81 % 69 % 1003,0 hPa 0,0 l/m 14,9 km/h (3 Bft) 0 min 0 min 17,7 km/h (3 Bft)
05.12.2011 11:58 13,9 C 5,8 C 0,5 UV-I 2,6 C 49 % 81 % 74 % 1003,0 hPa 0,0 l/m 14,1 km/h (3 Bft) 2 min 0 min 10,3 km/h (2 Bft)
05.12.2011 12:00 13,9 C 5,7 C 0,5 UV-I 2,9 C 49 % 81 % 83 % 1003,0 hPa 0,0 l/m 14,1 km/h (3 Bft) 2 min 0 min 15,1 km/h (3 Bft)
05.12.2011 12:02 13,9 C 5,9 C 0,5 UV-I 2,7 C 49 % 81 % 77 % 1003,0 hPa 0,0 l/m 14,1 km/h (3 Bft) 2 min 0 min 15,1 km/h (3 Bft)
05.12.2011 12:04 14,1 C 5,9 C 0,5 UV-I 2,8 C 49 % 80 % 80 % 1002,6 hPa 0,0 l/m 13,7 km/h (3 Bft) 2 min 0 min 16,7 km/h (3 Bft)
05.12.2011 12:06 14,1 C 5,9 C 0,5 UV-I 2,9 C 49 % 81 % 83 % 1002,6 hPa 0,0 l/m 13,3 km/h (3 Bft) 2 min 0 min 19,0 km/h (3 Bft)
05.12.2011 12:08 14,1 C 5,8 C 0,5 UV-I 3,1 C 49 % 81 % 89 % 1002,6 hPa 0,0 l/m 13,7 km/h (3 Bft) 2 min 0 min 19,0 km/h (3 Bft)
05.12.2011 12:10 14,1 C 5,9 C 0,5 UV-I 3,1 C 49 % 81 % 89 % 1002,6 hPa 0,0 l/m 14,1 km/h (3 Bft) 2 min 0 min 18,7 km/h (3 Bft)
05.12.2011 12:12 14,1 C 5,9 C 0,5 UV-I 3,2 C 49 % 80 % 91 % 1002,6 hPa 0,0 l/m 14,1 km/h (3 Bft) 2 min 0 min 18,7 km/h (3 Bft)
05.12.2011 12:14 14,1 C 6,1 C 0,5 UV-I 3,3 C 49 % 80 % 94 % 1002,6 hPa 0,0 l/m 12,4 km/h (3 Bft) 2 min 0 min 13,2 km/h (3 Bft)
05.12.2011 12:16 14,1 C 6,0 C 0,5 UV-I 3,6 C 49 % 80 % 100 % 1002,6 hPa 0,0 l/m 12,0 km/h (2 Bft) 2 min 0 min 14,8 km/h (3 Bft)
05.12.2011 12:18 14,1 C 6,1 C 0,4 UV-I 3,5 C 49 % 80 % 100 % 1002,6 hPa 0,0 l/m 12,4 km/h (3 Bft) 2 min 0 min 14,8 km/h (3 Bft)
05.12.2011 12:20 14,1 C 6,1 C 0,4 UV-I 3,6 C 49 % 80 % 100 % 1002,6 hPa 0,0 l/m 12,8 km/h (3 Bft) 2 min 0 min 20,6 km/h (4 Bft)
05.12.2011 12:22 14,1 C 6,3 C 0,5 UV-I 3,6 C 49 % 80 % 100 % 1002,6 hPa 0,0 l/m 12,4 km/h (3 Bft) 2 min 0 min 20,6 km/h (4 Bft)
05.12.2011 12:24 14,1 C 6,2 C 0,5 UV-I 3,9 C 49 % 80 % 100 % 1002,6 hPa 0,0 l/m 11,6 km/h (2 Bft) 2 min 0 min 10,3 km/h (2 Bft)
05.12.2011 12:26 14,1 C 6,3 C 0,5 UV-I 3,5 C 49 % 80 % 100 % 1002,6 hPa 0,0 l/m 13,3 km/h (3 Bft) 2 min 0 min 16,1 km/h (3 Bft)
05.12.2011 12:28 14,1 C 6,3 C 0,5 UV-I 3,6 C 49 % 79 % 100 % 1002,6 hPa 0,0 l/m 12,0 km/h (2 Bft) 2 min 0 min 16,1 km/h (3 Bft)
05.12.2011 12:30 14,1 C 6,3 C 0,5 UV-I 3,9 C 49 % 79 % 100 % 1002,6 hPa 0,0 l/m 11,2 km/h (2 Bft) 2 min 0 min 9,7 km/h (2 Bft)
05.12.2011 12:32 14,1 C 6,3 C 0,3 UV-I 3,8 C 49 % 79 % 100 % 1002,6 hPa 0,0 l/m 10,8 km/h (2 Bft) 2 min 0 min 15,1 km/h (3 Bft)
05.12.2011 12:34 14,2 C 6,3 C 0,3 UV-I 3,2 C 49 % 79 % 91 % 1002,6 hPa 0,0 l/m 10,8 km/h (2 Bft) 2 min 0 min 15,1 km/h (3 Bft)
05.12.2011 12:36 14,2 C 6,3 C 0,3 UV-I 2,6 C 49 % 78 % 74 % 1002,6 hPa 0,0 l/m 12,4 km/h (3 Bft) 2 min 0 min 19,3 km/h (3 Bft)
05.12.2011 12:38 14,2 C 6,3 C 0,3 UV-I 2,1 C 49 % 78 % 60 % 1002,6 hPa 0,0 l/m 12,4 km/h (3 Bft) 0 min 0 min 19,3 km/h (3 Bft)
05.12.2011 12:40 14,2 C 6,2 C 0,3 UV-I 1,7 C 49 % 78 % 49 % 1002,6 hPa 0,0 l/m 13,3 km/h (3 Bft) 0 min 0 min 17,1 km/h (3 Bft)
05.12.2011 12:42 14,2 C 6,3 C 0,4 UV-I 1,3 C 49 % 78 % 37 % 1002,6 hPa 0,0 l/m 13,7 km/h (3 Bft) 0 min 0 min 17,7 km/h (3 Bft)
05.12.2011 12:44 14,2 C 6,2 C 0,4 UV-I 1,4 C 49 % 78 % 40 % 1002,6 hPa 0,0 l/m 14,5 km/h (3 Bft) 0 min 0 min 20,3 km/h (4 Bft)
05.12.2011 12:46 14,2 C 6,3 C 0,4 UV-I 1,3 C 49 % 78 % 37 % 1002,9 hPa 0,0 l/m 14,9 km/h (3 Bft) 0 min 0 min 20,3 km/h (4 Bft)
05.12.2011 12:48 14,2 C 6,3 C 0,4 UV-I 1,2 C 49 % 77 % 34 % 1002,9 hPa 0,0 l/m 14,9 km/h (3 Bft) 0 min 0 min 18,7 km/h (3 Bft)
05.12.2011 12:50 14,2 C 6,3 C 0,4 UV-I 1,4 C 49 % 77 % 40 % 1002,9 hPa 0,0 l/m 14,9 km/h (3 Bft) 0 min 0 min 18,7 km/h (3 Bft)
05.12.2011 12:52 14,2 C 6,3 C 0,4 UV-I 1,1 C 49 % 77 % 31 % 1002,9 hPa 0,0 l/m 15,7 km/h (3 Bft) 0 min 0 min 17,4 km/h (3 Bft)
05.12.2011 12:54 14,2 C 6,3 C 0,4 UV-I 1,1 C 49 % 77 % 31 % 1002,9 hPa 0,0 l/m 15,3 km/h (3 Bft) 0 min 0 min 15,8 km/h (3 Bft)
05.12.2011 12:56 14,1 C 6,3 C 0,4 UV-I 1,6 C 49 % 77 % 46 % 1002,9 hPa 0,0 l/m 14,5 km/h (3 Bft) 0 min 0 min 14,5 km/h (3 Bft)
05.12.2011 12:58 14,1 C 6,3 C 0,3 UV-I 1,4 C 49 % 77 % 40 % 1002,9 hPa 0,0 l/m 14,5 km/h (3 Bft) 0 min 0 min 17,7 km/h (3 Bft)
05.12.2011 13:00 14,3 C 6,3 C 0,3 UV-I 1,2 C 49 % 77 % 34 % 1002,9 hPa 0,0 l/m 13,3 km/h (3 Bft) 0 min 0 min 17,7 km/h (3 Bft)
05.12.2011 13:02 14,3 C 6,2 C 0,4 UV-I 0,9 C 48 % 77 % 26 % 1002,9 hPa 0,0 l/m 13,7 km/h (3 Bft) 0 min 0 min 21,9 km/h (4 Bft)
05.12.2011 13:04 14,1 C 6,3 C 0,4 UV-I 0,5 C 48 % 77 % 14 % 1002,9 hPa 0,0 l/m 12,8 km/h (3 Bft) 0 min 0 min 9,3 km/h (2 Bft)
05.12.2011 13:06 14,1 C 6,2 C 0,4 UV-I 0,4 C 48 % 77 % 11 % 1002,4 hPa 0,0 l/m 13,7 km/h (3 Bft) 0 min 0 min 20,6 km/h (4 Bft)
05.12.2011 13:08 14,3 C 6,3 C 0,4 UV-I 0,5 C 48 % 77 % 14 % 1002,4 hPa 0,0 l/m 14,1 km/h (3 Bft) 0 min 0 min 20,6 km/h (4 Bft)
05.12.2011 13:10 14,3 C 6,3 C 0,4 UV-I 0,8 C 48 % 77 % 23 % 1002,4 hPa 0,0 l/m 13,3 km/h (3 Bft) 0 min 0 min 12,2 km/h (2 Bft)
05.12.2011 13:12 14,3 C 6,3 C 0,4 UV-I 0,7 C 48 % 77 % 20 % 1002,4 hPa 0,0 l/m 12,8 km/h (3 Bft) 0 min 0 min 14,2 km/h (3 Bft)
05.12.2011 13:14 14,3 C 6,3 C 0,4 UV-I 0,5 C 48 % 77 % 14 % 1002,4 hPa 0,0 l/m 12,4 km/h (3 Bft) 0 min 0 min 14,2 km/h (3 Bft)
05.12.2011 13:16 14,3 C 6,3 C 0,4 UV-I 0,2 C 48 % 77 % 6 % 1002,4 hPa 0,0 l/m 13,3 km/h (3 Bft) 0 min 0 min 13,8 km/h (3 Bft)
05.12.2011 13:18 14,3 C 6,3 C 0,4 UV-I 0,0 C 48 % 77 % 0 % 1002,4 hPa 0,0 l/m 12,4 km/h (3 Bft) 0 min 0 min 13,8 km/h (3 Bft)
05.12.2011 13:20 14,3 C 6,3 C 0,4 UV-I 0,0 C 48 % 76 % 0 % 1002,4 hPa 0,0 l/m 13,7 km/h (3 Bft) 0 min 0 min 14,2 km/h (3 Bft)
05.12.2011 13:22 14,3 C 6,3 C 0,3 UV-I 0,0 C 48 % 76 % 0 % 1002,4 hPa 0,0 l/m 15,3 km/h (3 Bft) 0 min 0 min 23,2 km/h (4 Bft)
05.12.2011 13:24 14,3 C 6,3 C 0,3 UV-I 0,0 C 48 % 76 % 0 % 1002,4 hPa 0,0 l/m 15,7 km/h (3 Bft) 0 min 0 min 23,2 km/h (4 Bft)
05.12.2011 13:26 14,4 C 6,3 C 0,3 UV-I 0,0 C 48 % 76 % 0 % 1002,4 hPa 0,0 l/m 16,1 km/h (3 Bft) 0 min 0 min 12,6 km/h (3 Bft)
05.12.2011 13:28 14,2 C 6,4 C 0,4 UV-I 0,0 C 48 % 76 % 0 % 1002,4 hPa 0,0 l/m 15,7 km/h (3 Bft) 0 min 0 min 12,6 km/h (3 Bft)
05.12.2011 13:30 14,4 C 6,4 C 0,4 UV-I 0,1 C 48 % 76 % 3 % 1002,4 hPa 0,0 l/m 15,7 km/h (3 Bft) 0 min 0 min 12,6 km/h (3 Bft)
05.12.2011 13:32 14,4 C 6,5 C 0,3 UV-I 0,1 C 48 % 76 % 3 % 1002,4 hPa 0,0 l/m 15,3 km/h (3 Bft) 0 min 0 min 15,1 km/h (3 Bft)
05.12.2011 13:34 14,4 C 6,5 C 0,3 UV-I 0,2 C 48 % 76 % 6 % 1002,4 hPa 0,0 l/m 14,9 km/h (3 Bft) 0 min 0 min 18,7 km/h (3 Bft)
05.12.2011 13:36 14,3 C 6,5 C 0,3 UV-I 0,2 C 48 % 76 % 6 % 1002,4 hPa 0,0 l/m 14,5 km/h (3 Bft) 0 min 0 min 18,7 km/h (3 Bft)
05.12.2011 13:38 14,4 C 6,5 C 0,3 UV-I 0,1 C 48 % 76 % 3 % 1002,4 hPa 0,0 l/m 13,7 km/h (3 Bft) 0 min 0 min 11,6 km/h (2 Bft)
05.12.2011 13:40 14,3 C 6,4 C 0,3 UV-I 0,3 C 48 % 76 % 9 % 1002,4 hPa 0,0 l/m 12,4 km/h (3 Bft) 0 min 0 min 11,6 km/h (2 Bft)
05.12.2011 13:42 14,3 C 6,5 C 0,2 UV-I 0,2 C 48 % 76 % 6 % 1002,4 hPa 0,0 l/m 12,4 km/h (3 Bft) 0 min 0 min 13,5 km/h (3 Bft)
05.12.2011 13:44 14,3 C 6,4 C 0,2 UV-I 0,0 C 48 % 75 % 0 % 1002,8 hPa 0,0 l/m 12,8 km/h (3 Bft) 0 min 0 min 13,5 km/h (3 Bft)
05.12.2011 13:46 14,3 C 6,4 C 0,2 UV-I 0,0 C 48 % 75 % 0 % 1002,8 hPa 0,0 l/m 13,3 km/h (3 Bft) 0 min 0 min 13,5 km/h (3 Bft)
05.12.2011 13:48 14,3 C 6,3 C 0,1 UV-I 0,0 C 48 % 75 % 0 % 1002,8 hPa 0,0 l/m 14,1 km/h (3 Bft) 0 min 0 min 13,5 km/h (3 Bft)
05.12.2011 13:50 14,3 C 6,4 C 0,1 UV-I 0,0 C 47 % 75 % 0 % 1002,8 hPa 0,0 l/m 14,5 km/h (3 Bft) 0 min 0 min 13,5 km/h (3 Bft)
05.12.2011 13:52 14,3 C 6,3 C 0,0 UV-I 0,0 C 47 % 75 % 0 % 1002,8 hPa 0,0 l/m 14,9 km/h (3 Bft) 0 min 0 min 13,5 km/h (3 Bft)
05.12.2011 13:54 14,3 C 6,3 C 0,0 UV-I 0,0 C 48 % 75 % 0 % 1002,8 hPa 0,0 l/m 14,9 km/h (3 Bft) 0 min 0 min 29,3 km/h (5 Bft)
05.12.2011 13:56 14,3 C 6,3 C 0,0 UV-I 0,0 C 47 % 76 % 0 % 1002,8 hPa 0,0 l/m 13,7 km/h (3 Bft) 0 min 0 min 29,3 km/h (5 Bft)
05.12.2011 13:58 14,3 C 6,3 C 0,0 UV-I 0,0 C 47 % 76 % 0 % 1002,8 hPa 0,0 l/m 12,8 km/h (3 Bft) 0 min 0 min 15,8 km/h (3 Bft)
05.12.2011 14:00 14,5 C 6,3 C 0,0 UV-I 0,0 C 47 % 76 % 0 % 1002,8 hPa 0,0 l/m 11,6 km/h (2 Bft) 0 min 0 min 5,8 km/h (2 Bft)
05.12.2011 14:02 14,3 C 6,3 C 0,0 UV-I 0,0 C 47 % 76 % 0 % 1002,8 hPa 0,0 l/m 10,4 km/h (2 Bft) 0 min 0 min 10,6 km/h (2 Bft)
05.12.2011 14:04 14,5 C 6,3 C 0,0 UV-I 0,0 C 47 % 76 % 0 % 1002,8 hPa 0,0 l/m 10,0 km/h (2 Bft) 0 min 0 min 11,9 km/h (2 Bft)
05.12.2011 14:06 14,3 C 6,3 C 0,0 UV-I 0,0 C 47 % 76 % 0 % 1002,8 hPa 0,0 l/m 8,8 km/h (2 Bft) 0 min 0 min 11,9 km/h (2 Bft)
05.12.2011 14:08 14,3 C 6,2 C 0,0 UV-I 0,0 C 47 % 76 % 0 % 1002,8 hPa 0,0 l/m 8,4 km/h (2 Bft) 0 min 0 min 11,9 km/h (2 Bft)
05.12.2011 14:10 14,3 C 6,1 C 0,0 UV-I 0,0 C 47 % 77 % 0 % 1002,8 hPa 0,0 l/m 9,2 km/h (2 Bft) 0 min 2 min 11,9 km/h (2 Bft)
05.12.2011 14:12 14,3 C 6,0 C 0,0 UV-I 0,0 C 47 % 77 % 0 % 1002,8 hPa 0,0 l/m 9,2 km/h (2 Bft) 0 min 2 min 9,3 km/h (2 Bft)
05.12.2011 14:14 14,3 C 6,0 C 0,0 UV-I 0,0 C 47 % 77 % 0 % 1002,8 hPa 0,0 l/m 9,6 km/h (2 Bft) 0 min 2 min 16,4 km/h (3 Bft)
05.12.2011 14:16 14,3 C 5,9 C 0,0 UV-I 0,0 C 48 % 78 % 0 % 1002,8 hPa 0,0 l/m 9,2 km/h (2 Bft) 0 min 2 min 16,4 km/h (3 Bft)
05.12.2011 14:18 14,5 C 5,9 C 0,0 UV-I 0,0 C 48 % 78 % 0 % 1002,8 hPa 0,0 l/m 8,8 km/h (2 Bft) 0 min 2 min 5,1 km/h (1 Bft)
05.12.2011 14:20 14,3 C 5,9 C 0,0 UV-I 0,0 C 48 % 78 % 0 % 1002,8 hPa 0,1 l/m 9,2 km/h (2 Bft) 0 min 2 min 11,9 km/h (2 Bft)
05.12.2011 14:22 14,3 C 5,7 C 0,0 UV-I 0,0 C 48 % 79 % 0 % 1002,8 hPa 0,0 l/m 8,8 km/h (2 Bft) 0 min 2 min 11,9 km/h (2 Bft)
05.12.2011 14:24 14,3 C 5,7 C 0,0 UV-I 0,0 C 48 % 79 % 0 % 1002,4 hPa 0,0 l/m 8,8 km/h (2 Bft) 0 min 2 min 9,7 km/h (2 Bft)
05.12.2011 14:26 14,3 C 5,6 C 0,0 UV-I 0,0 C 48 % 79 % 0 % 1002,4 hPa 0,0 l/m 7,2 km/h (2 Bft) 0 min 2 min 9,7 km/h (2 Bft)
05.12.2011 14:28 14,3 C 5,6 C 0,0 UV-I 0,0 C 48 % 80 % 0 % 1002,4 hPa 0,1 l/m 7,2 km/h (2 Bft) 0 min 2 min 6,4 km/h (2 Bft)
05.12.2011 14:30 14,3 C 5,5 C 0,0 UV-I 0,0 C 48 % 80 % 0 % 1002,4 hPa 0,0 l/m 6,4 km/h (2 Bft) 0 min 2 min 6,4 km/h (2 Bft)
05.12.2011 14:32 14,3 C 5,5 C 0,0 UV-I 0,0 C 48 % 80 % 0 % 1002,4 hPa 0,0 l/m 5,6 km/h (1 Bft) 0 min 2 min 8,7 km/h (2 Bft)
05.12.2011 14:34 14,3 C 5,3 C 0,0 UV-I 0,0 C 48 % 80 % 0 % 1002,4 hPa 0,0 l/m 5,6 km/h (1 Bft) 0 min 2 min 11,9 km/h (2 Bft)
05.12.2011 14:36 14,3 C 5,2 C 0,0 UV-I 0,0 C 48 % 80 % 0 % 1002,4 hPa 0,0 l/m 5,6 km/h (1 Bft) 0 min 2 min 11,9 km/h (2 Bft)
05.12.2011 14:38 14,3 C 5,3 C 0,0 UV-I 0,0 C 48 % 81 % 0 % 1002,4 hPa 0,0 l/m 6,0 km/h (2 Bft) 0 min 2 min 9,3 km/h (2 Bft)
05.12.2011 14:40 14,3 C 5,1 C 0,0 UV-I 0,0 C 48 % 81 % 0 % 1002,4 hPa 0,0 l/m 6,8 km/h (2 Bft) 0 min 2 min 9,3 km/h (2 Bft)
05.12.2011 14:42 14,3 C 4,8 C 0,0 UV-I 0,0 C 48 % 80 % 0 % 1002,4 hPa 0,1 l/m 8,8 km/h (2 Bft) 0 min 2 min 25,7 km/h (4 Bft)
05.12.2011 14:44 14,4 C 4,3 C 0,0 UV-I 0,0 C 48 % 79 % 0 % 1003,4 hPa 0,0 l/m 12,4 km/h (3 Bft) 0 min 2 min 29,9 km/h (5 Bft)
05.12.2011 14:46 14,4 C 3,8 C 0,0 UV-I 0,0 C 48 % 80 % 0 % 1003,4 hPa 0,0 l/m 14,5 km/h (3 Bft) 0 min 2 min 29,9 km/h (5 Bft)
05.12.2011 14:48 14,4 C 3,4 C 0,0 UV-I 0,0 C 48 % 81 % 0 % 1003,4 hPa 0,0 l/m 15,7 km/h (3 Bft) 0 min 2 min 14,2 km/h (3 Bft)
05.12.2011 14:50 14,4 C 3,2 C 0,0 UV-I 0,0 C 48 % 82 % 0 % 1003,4 hPa 0,1 l/m 16,9 km/h (3 Bft) 0 min 2 min 16,1 km/h (3 Bft)
05.12.2011 14:52 14,4 C 3,1 C 0,0 UV-I 0,0 C 48 % 82 % 0 % 1003,4 hPa 0,0 l/m 16,9 km/h (3 Bft) 0 min 2 min 44,7 km/h (6 Bft)
05.12.2011 14:54 14,4 C 2,9 C 0,0 UV-I 0,0 C 48 % 83 % 0 % 1003,4 hPa 0,2 l/m 15,3 km/h (3 Bft) 0 min 0 min 22,5 km/h (4 Bft)
05.12.2011 14:56 14,2 C 2,8 C 0,0 UV-I 0,0 C 48 % 84 % 0 % 1003,4 hPa 0,2 l/m 13,7 km/h (3 Bft) 0 min 2 min 22,5 km/h (4 Bft)
05.12.2011 14:58 14,3 C 2,8 C 0,0 UV-I 0,0 C 48 % 84 % 0 % 1003,4 hPa 0,0 l/m 12,4 km/h (3 Bft) 0 min 2 min 9,7 km/h (2 Bft)
05.12.2011 15:00 14,3 C 2,7 C 0,0 UV-I 0,0 C 48 % 84 % 0 % 1003,4 hPa 0,2 l/m 11,2 km/h (2 Bft) 0 min 2 min 9,0 km/h (2 Bft)
05.12.2011 15:02 14,3 C 2,7 C 0,0 UV-I 0,0 C 48 % 85 % 0 % 1003,4 hPa 0,1 l/m 9,6 km/h (2 Bft) 0 min 2 min 9,0 km/h (2 Bft)
05.12.2011 15:04 14,3 C 2,7 C 0,0 UV-I 0,0 C 48 % 85 % 0 % 1002,8 hPa 0,0 l/m 8,4 km/h (2 Bft) 0 min 2 min 0,0 km/h (0 Bft)
05.12.2011 15:06 14,3 C 2,7 C 0,0 UV-I 0,0 C 48 % 85 % 0 % 1002,8 hPa 0,1 l/m 6,0 km/h (2 Bft) 0 min 2 min 0,0 km/h (0 Bft)
05.12.2011 15:08 14,1 C 2,5 C 0,0 UV-I 0,0 C 49 % 85 % 0 % 1002,8 hPa 0,1 l/m 4,4 km/h (1 Bft) 0 min 2 min 7,4 km/h (2 Bft)
05.12.2011 15:10 14,2 C 2,5 C 0,0 UV-I 0,0 C 49 % 86 % 0 % 1002,8 hPa 0,0 l/m 3,2 km/h (1 Bft) 0 min 2 min 7,4 km/h (2 Bft)
05.12.2011 15:12 14,2 C 2,5 C 0,0 UV-I 0,0 C 49 % 86 % 0 % 1002,8 hPa 0,1 l/m 2,0 km/h (1 Bft) 0 min 2 min 4,5 km/h (1 Bft)
05.12.2011 15:14 14,2 C 2,6 C 0,0 UV-I 0,0 C 49 % 86 % 0 % 1002,8 hPa 0,0 l/m 2,4 km/h (1 Bft) 0 min 2 min 6,1 km/h (2 Bft)
05.12.2011 15:16 14,2 C 2,7 C 0,0 UV-I 0,0 C 49 % 87 % 0 % 1002,8 hPa 0,0 l/m 2,4 km/h (1 Bft) 0 min 0 min 9,0 km/h (2 Bft)
05.12.2011 15:18 14,2 C 2,7 C 0,0 UV-I 0,0 C 49 % 87 % 0 % 1002,8 hPa 0,0 l/m 3,2 km/h (1 Bft) 0 min 2 min 9,0 km/h (2 Bft)
05.12.2011 15:20 14,2 C 2,7 C 0,0 UV-I 0,0 C 49 % 87 % 0 % 1002,8 hPa 0,1 l/m 3,2 km/h (1 Bft) 0 min 2 min 0,0 km/h (0 Bft)
05.12.2011 15:22 14,2 C 2,7 C 0,0 UV-I 0,0 C 49 % 87 % 0 % 1002,8 hPa 0,0 l/m 4,8 km/h (1 Bft) 0 min 2 min 15,4 km/h (3 Bft)
05.12.2011 15:24 14,2 C 2,7 C 0,0 UV-I 0,0 C 49 % 87 % 0 % 1002,6 hPa 0,0 l/m 4,4 km/h (1 Bft) 0 min 2 min 15,4 km/h (3 Bft)
05.12.2011 15:26 14,2 C 2,7 C 0,0 UV-I 0,0 C 49 % 87 % 0 % 1002,6 hPa 0,0 l/m 4,4 km/h (1 Bft) 0 min 2 min 3,9 km/h (1 Bft)
05.12.2011 15:28 14,2 C 2,7 C 0,0 UV-I 0,0 C 49 % 87 % 0 % 1002,6 hPa 0,0 l/m 3,6 km/h (1 Bft) 0 min 2 min 4,8 km/h (1 Bft)
05.12.2011 15:30 14,2 C 2,7 C 0,0 UV-I 0,0 C 49 % 87 % 0 % 1002,6 hPa 0,1 l/m 3,6 km/h (1 Bft) 0 min 2 min 4,8 km/h (1 Bft)
05.12.2011 15:32 14,2 C 2,7 C 0,0 UV-I 0,0 C 49 % 87 % 0 % 1002,6 hPa 0,0 l/m 2,8 km/h (1 Bft) 0 min 2 min 4,2 km/h (1 Bft)
05.12.2011 15:34 14,2 C 2,6 C 0,0 UV-I 0,0 C 49 % 87 % 0 % 1002,6 hPa 0,0 l/m 2,4 km/h (1 Bft) 0 min 2 min 4,5 km/h (1 Bft)
05.12.2011 15:36 14,2 C 2,7 C 0,0 UV-I 0,0 C 49 % 88 % 0 % 1002,6 hPa 0,1 l/m 2,4 km/h (1 Bft) 0 min 2 min 4,5 km/h (1 Bft)
05.12.2011 15:38 14,2 C 2,7 C 0,0 UV-I 0,0 C 49 % 88 % 0 % 1002,6 hPa 0,0 l/m 2,0 km/h (1 Bft) 0 min 2 min 0,0 km/h (0 Bft)
05.12.2011 15:40 14,1 C 2,7 C 0,0 UV-I 0,0 C 49 % 88 % 0 % 1002,6 hPa 0,0 l/m 1,2 km/h (1 Bft) 0 min 2 min 0,0 km/h (0 Bft)
05.12.2011 15:42 14,2 C 2,7 C 0,0 UV-I 0,0 C 49 % 88 % 0 % 1002,6 hPa 0,0 l/m 2,0 km/h (1 Bft) 0 min 2 min 5,5 km/h (1 Bft)
05.12.2011 15:44 14,2 C 2,6 C 0,0 UV-I 0,0 C 49 % 88 % 0 % 1002,5 hPa 0,0 l/m 2,0 km/h (1 Bft) 0 min 2 min 5,5 km/h (1 Bft)
05.12.2011 15:46 14,2 C 2,5 C 0,0 UV-I 0,0 C 49 % 88 % 0 % 1002,5 hPa 0,0 l/m 1,6 km/h (1 Bft) 0 min 2 min 3,5 km/h (1 Bft)
05.12.2011 15:48 14,2 C 2,7 C 0,0 UV-I 0,0 C 49 % 88 % 0 % 1002,5 hPa 0,1 l/m 1,6 km/h (1 Bft) 0 min 2 min 3,5 km/h (1 Bft)
05.12.2011 15:50 14,2 C 2,6 C 0,0 UV-I 0,0 C 49 % 88 % 0 % 1002,5 hPa 0,0 l/m 1,6 km/h (1 Bft) 0 min 2 min 0,0 km/h (0 Bft)
05.12.2011 15:52 14,2 C 2,7 C 0,0 UV-I 0,0 C 49 % 88 % 0 % 1002,5 hPa 0,0 l/m 1,6 km/h (1 Bft) 0 min 2 min 7,7 km/h (2 Bft)
05.12.2011 15:54 14,2 C 2,7 C 0,0 UV-I 0,0 C 49 % 88 % 0 % 1002,5 hPa 0,1 l/m 1,6 km/h (1 Bft) 0 min 2 min 7,7 km/h (2 Bft)
05.12.2011 15:56 14,1 C 2,6 C 0,0 UV-I 0,0 C 49 % 89 % 0 % 1002,5 hPa 0,0 l/m 2,4 km/h (1 Bft) 0 min 2 min 3,2 km/h (1 Bft)
05.12.2011 15:58 14,2 C 2,7 C 0,0 UV-I 0,0 C 49 % 89 % 0 % 1002,5 hPa 0,0 l/m 2,4 km/h (1 Bft) 0 min 2 min 5,5 km/h (1 Bft)
05.12.2011 16:00 14,2 C 2,6 C 0,0 UV-I 0,0 C 50 % 89 % 0 % 1002,5 hPa 0,1 l/m 2,8 km/h (1 Bft) 0 min 2 min 5,5 km/h (1 Bft)
05.12.2011 16:02 14,1 C 2,7 C 0,0 UV-I 0,0 C 49 % 89 % 0 % 1002,5 hPa 0,0 l/m 4,0 km/h (1 Bft) 0 min 2 min 6,1 km/h (2 Bft)
05.12.2011 16:04 14,1 C 2,7 C 0,0 UV-I 0,0 C 49 % 89 % 0 % 1002,8 hPa 0,2 l/m 4,0 km/h (1 Bft) 0 min 2 min 4,8 km/h (1 Bft)
05.12.2011 16:06 14,1 C 2,7 C 0,0 UV-I 0,0 C 50 % 89 % 0 % 1002,8 hPa 0,1 l/m 4,0 km/h (1 Bft) 0 min 2 min 6,1 km/h (2 Bft)
05.12.2011 16:08 14,1 C 2,7 C 0,0 UV-I 0,0 C 50 % 89 % 0 % 1002,8 hPa 0,0 l/m 4,4 km/h (1 Bft) 0 min 2 min 8,0 km/h (2 Bft)
05.12.2011 16:10 14,1 C 2,7 C 0,0 UV-I 0,0 C 50 % 89 % 0 % 1002,8 hPa 0,1 l/m 4,8 km/h (1 Bft) 0 min 0 min 8,0 km/h (2 Bft)
05.12.2011 16:12 13,9 C 2,7 C 0,0 UV-I 0,0 C 50 % 89 % 0 % 1002,8 hPa 0,1 l/m 4,8 km/h (1 Bft) 0 min 2 min 5,8 km/h (2 Bft)
05.12.2011 16:14 13,9 C 2,6 C 0,0 UV-I 0,0 C 50 % 89 % 0 % 1002,8 hPa 0,0 l/m 5,2 km/h (1 Bft) 0 min 2 min 5,5 km/h (1 Bft)
05.12.2011 16:16 13,9 C 2,7 C 0,0 UV-I 0,0 C 50 % 89 % 0 % 1002,8 hPa 0,0 l/m 4,8 km/h (1 Bft) 0 min 2 min 5,5 km/h (1 Bft)
05.12.2011 16:18 13,9 C 2,6 C 0,0 UV-I 0,0 C 50 % 89 % 0 % 1002,8 hPa 0,0 l/m 5,2 km/h (1 Bft) 0 min 2 min 3,9 km/h (1 Bft)
05.12.2011 16:20 13,9 C 2,7 C 0,0 UV-I 0,0 C 50 % 89 % 0 % 1002,8 hPa 0,0 l/m 4,0 km/h (1 Bft) 0 min 2 min 3,9 km/h (1 Bft)
05.12.2011 16:22 13,9 C 2,7 C 0,0 UV-I 0,0 C 50 % 89 % 0 % 1002,8 hPa 0,0 l/m 3,2 km/h (1 Bft) 0 min 0 min 0,0 km/h (0 Bft)
05.12.2011 16:24 13,9 C 2,7 C 0,0 UV-I 0,0 C 50 % 89 % 0 % 1002,7 hPa 0,0 l/m 2,4 km/h (1 Bft) 0 min 0 min 0,0 km/h (0 Bft)
05.12.2011 16:26 13,9 C 2,6 C 0,0 UV-I 0,0 C 50 % 89 % 0 % 1002,7 hPa 0,0 l/m 2,4 km/h (1 Bft) 0 min 0 min 6,1 km/h (2 Bft)
05.12.2011 16:28 13,9 C 2,6 C 0,0 UV-I 0,0 C 50 % 89 % 0 % 1002,7 hPa 0,0 l/m 2,8 km/h (1 Bft) 0 min 2 min 15,8 km/h (3 Bft)
05.12.2011 16:30 13,9 C 2,7 C 0,0 UV-I 0,0 C 50 % 89 % 0 % 1002,7 hPa 0,4 l/m 5,6 km/h (1 Bft) 0 min 2 min 18,3 km/h (3 Bft)
05.12.2011 16:32 13,9 C 2,6 C 0,0 UV-I 0,0 C 50 % 89 % 0 % 1002,7 hPa 0,0 l/m 6,8 km/h (2 Bft) 0 min 2 min 18,3 km/h (3 Bft)
05.12.2011 16:34 13,9 C 2,5 C 0,0 UV-I 0,0 C 50 % 89 % 0 % 1002,7 hPa 0,2 l/m 7,2 km/h (2 Bft) 0 min 2 min 10,6 km/h (2 Bft)
05.12.2011 16:36 13,9 C 2,4 C 0,0 UV-I 0,0 C 50 % 89 % 0 % 1002,7 hPa 0,2 l/m 8,4 km/h (2 Bft) 0 min 2 min 10,6 km/h (2 Bft)
05.12.2011 16:38 13,9 C 2,5 C 0,0 UV-I 0,0 C 50 % 89 % 0 % 1002,7 hPa 0,0 l/m 9,2 km/h (2 Bft) 0 min 0 min 11,9 km/h (2 Bft)
05.12.2011 16:40 13,9 C 2,3 C 0,0 UV-I 0,0 C 50 % 89 % 0 % 1002,7 hPa 0,2 l/m 8,8 km/h (2 Bft) 0 min 0 min 11,9 km/h (2 Bft)
05.12.2011 16:42 13,9 C 2,3 C 0,0 UV-I 0,0 C 50 % 89 % 0 % 1002,7 hPa 0,0 l/m 8,4 km/h (2 Bft) 0 min 0 min 16,7 km/h (3 Bft)
05.12.2011 16:44 14,0 C 2,3 C 0,0 UV-I 0,0 C 50 % 89 % 0 % 1002,9 hPa 0,2 l/m 9,2 km/h (2 Bft) 0 min 0 min 16,7 km/h (3 Bft)
05.12.2011 16:46 14,0 C 2,3 C 0,0 UV-I 0,0 C 50 % 89 % 0 % 1002,9 hPa 0,4 l/m 10,0 km/h (2 Bft) 0 min 0 min 12,2 km/h (2 Bft)
05.12.2011 16:48 14,0 C 2,1 C 0,0 UV-I 0,0 C 50 % 89 % 0 % 1002,9 hPa 0,0 l/m 10,4 km/h (2 Bft) 0 min 0 min 17,1 km/h (3 Bft)
05.12.2011 16:50 14,0 C 2,1 C 0,0 UV-I 0,0 C 50 % 90 % 0 % 1002,9 hPa 0,2 l/m 10,8 km/h (2 Bft) 0 min 0 min 17,1 km/h (3 Bft)
05.12.2011 16:52 14,0 C 2,1 C 0,0 UV-I 0,0 C 50 % 90 % 0 % 1002,9 hPa 0,5 l/m 11,6 km/h (2 Bft) 0 min 0 min 13,8 km/h (3 Bft)
05.12.2011 16:54 14,0 C 2,1 C 0,0 UV-I 0,0 C 50 % 90 % 0 % 1002,9 hPa 0,0 l/m 11,2 km/h (2 Bft) 0 min 0 min 13,8 km/h (3 Bft)
05.12.2011 16:56 13,8 C 2,1 C 0,0 UV-I 0,0 C 50 % 90 % 0 % 1002,9 hPa 0,4 l/m 10,4 km/h (2 Bft) 0 min 0 min 11,6 km/h (2 Bft)
05.12.2011 16:58 13,9 C 2,1 C 0,0 UV-I 0,0 C 50 % 90 % 0 % 1002,9 hPa 0,2 l/m 10,8 km/h (2 Bft) 0 min 0 min 11,6 km/h (2 Bft)
05.12.2011 17:00 13,9 C 2,1 C 0,0 UV-I 0,0 C 50 % 90 % 0 % 1002,9 hPa 0,0 l/m 10,4 km/h (2 Bft) 0 min 0 min 23,2 km/h (4 Bft)
05.12.2011 17:02 13,9 C 2,1 C 0,0 UV-I 0,0 C 50 % 91 % 0 % 1002,9 hPa 0,2 l/m 11,2 km/h (2 Bft) 0 min 0 min 31,2 km/h (5 Bft)
05.12.2011 17:04 13,8 C 2,1 C 0,0 UV-I 0,0 C 50 % 91 % 0 % 1002,9 hPa 0,1 l/m 10,4 km/h (2 Bft) 0 min 0 min 19,0 km/h (3 Bft)
05.12.2011 17:06 13,9 C 2,1 C 0,0 UV-I 0,0 C 50 % 91 % 0 % 1002,8 hPa 0,0 l/m 11,2 km/h (2 Bft) 0 min 0 min 19,0 km/h (3 Bft)
05.12.2011 17:08 13,8 C 2,1 C 0,0 UV-I 0,0 C 50 % 91 % 0 % 1002,8 hPa 0,1 l/m 10,8 km/h (2 Bft) 0 min 0 min 17,1 km/h (3 Bft)
05.12.2011 17:10 13,9 C 2,1 C 0,0 UV-I 0,0 C 50 % 91 % 0 % 1002,8 hPa 0,1 l/m 10,8 km/h (2 Bft) 0 min 0 min 13,5 km/h (3 Bft)
05.12.2011 17:12 13,8 C 2,3 C 0,0 UV-I 0,0 C 50 % 91 % 0 % 1002,8 hPa 0,0 l/m 10,4 km/h (2 Bft) 0 min 0 min 14,8 km/h (3 Bft)
05.12.2011 17:14 13,8 C 2,3 C 0,0 UV-I 0,0 C 50 % 91 % 0 % 1002,8 hPa 0,0 l/m 9,6 km/h (2 Bft) 0 min 0 min 14,8 km/h (3 Bft)
05.12.2011 17:16 13,8 C 2,2 C 0,0 UV-I 0,0 C 50 % 91 % 0 % 1002,8 hPa 0,1 l/m 10,0 km/h (2 Bft) 0 min 0 min 13,8 km/h (3 Bft)
05.12.2011 17:18 13,8 C 2,2 C 0,0 UV-I 0,0 C 50 % 91 % 0 % 1002,8 hPa 0,0 l/m 10,0 km/h (2 Bft) 0 min 0 min 13,8 km/h (3 Bft)
05.12.2011 17:20 13,8 C 2,3 C 0,0 UV-I 0,0 C 50 % 91 % 0 % 1002,8 hPa 0,1 l/m 10,0 km/h (2 Bft) 0 min 0 min 8,7 km/h (2 Bft)
05.12.2011 17:22 13,8 C 2,3 C 0,0 UV-I 0,0 C 50 % 91 % 0 % 1002,8 hPa 0,0 l/m 10,8 km/h (2 Bft) 0 min 0 min 15,4 km/h (3 Bft)
05.12.2011 17:24 13,8 C 2,3 C 0,0 UV-I 0,0 C 50 % 91 % 0 % 1002,4 hPa 0,0 l/m 10,8 km/h (2 Bft) 0 min 0 min 15,4 km/h (3 Bft)
05.12.2011 17:26 13,8 C 2,3 C 0,0 UV-I 0,0 C 50 % 91 % 0 % 1002,4 hPa 0,0 l/m 11,2 km/h (2 Bft) 0 min 0 min 9,0 km/h (2 Bft)
05.12.2011 17:28 13,6 C 2,4 C 0,0 UV-I 0,0 C 50 % 91 % 0 % 1002,4 hPa 0,0 l/m 11,6 km/h (2 Bft) 0 min 0 min 7,7 km/h (2 Bft)
05.12.2011 17:30 13,6 C 2,4 C 0,0 UV-I 0,0 C 50 % 91 % 0 % 1002,4 hPa 0,0 l/m 12,4 km/h (3 Bft) 0 min 0 min 11,3 km/h (2 Bft)
05.12.2011 17:32 13,6 C 2,5 C 0,0 UV-I 0,0 C 50 % 91 % 0 % 1002,4 hPa 0,0 l/m 12,8 km/h (3 Bft) 0 min 0 min 15,4 km/h (3 Bft)
05.12.2011 17:34 13,7 C 2,7 C 0,0 UV-I 0,0 C 50 % 91 % 0 % 1002,4 hPa 0,0 l/m 14,1 km/h (3 Bft) 0 min 0 min 38,6 km/h (5 Bft)
05.12.2011 17:36 13,6 C 2,7 C 0,0 UV-I 0,0 C 50 % 90 % 0 % 1002,4 hPa 0,0 l/m 15,7 km/h (3 Bft) 0 min 0 min 38,6 km/h (5 Bft)
05.12.2011 17:38 13,6 C 2,7 C 0,0 UV-I 0,0 C 50 % 90 % 0 % 1002,4 hPa 0,0 l/m 15,7 km/h (3 Bft) 0 min 0 min 31,2 km/h (5 Bft)
05.12.2011 17:40 13,6 C 2,8 C 0,0 UV-I 0,0 C 50 % 90 % 0 % 1002,4 hPa 0,0 l/m 16,1 km/h (3 Bft) 0 min 0 min 20,0 km/h (4 Bft)
05.12.2011 17:42 13,6 C 2,8 C 0,0 UV-I 0,0 C 50 % 90 % 0 % 1002,4 hPa 0,0 l/m 15,3 km/h (3 Bft) 0 min 0 min 20,0 km/h (4 Bft)
05.12.2011 17:44 13,6 C 2,9 C 0,0 UV-I 0,0 C 50 % 89 % 0 % 1002,1 hPa 0,0 l/m 14,9 km/h (3 Bft) 0 min 0 min 14,8 km/h (3 Bft)
05.12.2011 17:46 13,6 C 3,1 C 0,0 UV-I 0,0 C 50 % 89 % 0 % 1002,1 hPa 0,0 l/m 13,7 km/h (3 Bft) 0 min 0 min 19,0 km/h (3 Bft)
05.12.2011 17:48 13,6 C 3,1 C 0,0 UV-I 0,0 C 50 % 89 % 0 % 1002,1 hPa 0,0 l/m 13,7 km/h (3 Bft) 0 min 0 min 24,1 km/h (4 Bft)
05.12.2011 17:50 13,6 C 3,3 C 0,0 UV-I 0,0 C 50 % 89 % 0 % 1002,1 hPa 0,1 l/m 14,9 km/h (3 Bft) 0 min 0 min 24,1 km/h (4 Bft)
05.12.2011 17:52 13,6 C 3,2 C 0,0 UV-I 0,0 C 50 % 88 % 0 % 1002,1 hPa 0,0 l/m 14,9 km/h (3 Bft) 0 min 0 min 19,3 km/h (3 Bft)
05.12.2011 17:54 13,6 C 3,3 C 0,0 UV-I 0,0 C 50 % 89 % 0 % 1002,1 hPa 0,0 l/m 15,3 km/h (3 Bft) 0 min 0 min 17,4 km/h (3 Bft)
05.12.2011 17:56 13,5 C 3,2 C 0,0 UV-I 0,0 C 50 % 89 % 0 % 1002,1 hPa 0,0 l/m 15,7 km/h (3 Bft) 0 min 0 min 26,4 km/h (4 Bft)
05.12.2011 17:58 13,4 C 3,3 C 0,0 UV-I 0,0 C 50 % 89 % 0 % 1002,1 hPa 0,0 l/m 15,3 km/h (3 Bft) 0 min 0 min 26,4 km/h (4 Bft)
05.12.2011 18:00 13,4 C 3,3 C 0,0 UV-I 0,0 C 50 % 89 % 0 % 1002,1 hPa 0,0 l/m 15,7 km/h (3 Bft) 0 min 0 min 21,2 km/h (4 Bft)
05.12.2011 18:02 13,4 C 3,4 C 0,0 UV-I 0,0 C 50 % 88 % 0 % 1002,1 hPa 0,0 l/m 14,1 km/h (3 Bft) 0 min 0 min 21,2 km/h (4 Bft)
05.12.2011 18:04 13,5 C 3,4 C 0,0 UV-I 0,0 C 50 % 88 % 0 % 1002,4 hPa 0,0 l/m 13,7 km/h (3 Bft) 0 min 0 min 9,3 km/h (2 Bft)
05.12.2011 18:06 13,5 C 3,4 C 0,0 UV-I 0,0 C 50 % 88 % 0 % 1002,4 hPa 0,0 l/m 14,5 km/h (3 Bft) 0 min 0 min 29,6 km/h (5 Bft)
05.12.2011 18:08 13,5 C 3,5 C 0,0 UV-I 0,0 C 50 % 88 % 0 % 1002,4 hPa 0,0 l/m 13,7 km/h (3 Bft) 0 min 0 min 29,6 km/h (5 Bft)
05.12.2011 18:10 13,5 C 3,5 C 0,0 UV-I 0,0 C 50 % 88 % 0 % 1002,4 hPa 0,0 l/m 13,3 km/h (3 Bft) 0 min 0 min 24,8 km/h (4 Bft)
05.12.2011 18:12 13,5 C 3,4 C 0,0 UV-I 0,0 C 50 % 88 % 0 % 1002,4 hPa 0,0 l/m 12,4 km/h (3 Bft) 0 min 0 min 24,8 km/h (4 Bft)
05.12.2011 18:14 13,5 C 3,4 C 0,0 UV-I 0,0 C 50 % 88 % 0 % 1002,4 hPa 0,0 l/m 13,3 km/h (3 Bft) 0 min 0 min 7,7 km/h (2 Bft)
05.12.2011 18:16 13,5 C 3,5 C 0,0 UV-I 0,0 C 50 % 88 % 0 % 1002,4 hPa 0,0 l/m 13,3 km/h (3 Bft) 0 min 0 min 12,6 km/h (3 Bft)
05.12.2011 18:18 13,3 C 3,5 C 0,0 UV-I 0,0 C 50 % 87 % 0 % 1002,4 hPa 0,0 l/m 14,5 km/h (3 Bft) 0 min 0 min 12,9 km/h (3 Bft)
05.12.2011 18:20 13,5 C 3,5 C 0,0 UV-I 0,0 C 50 % 87 % 0 % 1002,4 hPa 0,0 l/m 15,7 km/h (3 Bft) 0 min 0 min 29,6 km/h (5 Bft)
05.12.2011 18:22 13,4 C 3,6 C 0,0 UV-I 0,0 C 50 % 87 % 0 % 1002,4 hPa 0,0 l/m 16,1 km/h (3 Bft) 0 min 0 min 34,1 km/h (5 Bft)
05.12.2011 18:24 13,3 C 3,6 C 0,0 UV-I 0,0 C 50 % 86 % 0 % 1002,3 hPa 0,0 l/m 17,3 km/h (3 Bft) 0 min 0 min 34,1 km/h (5 Bft)
05.12.2011 18:26 13,4 C 3,6 C 0,0 UV-I 0,0 C 50 % 86 % 0 % 1002,3 hPa 0,0 l/m 17,3 km/h (3 Bft) 0 min 0 min 20,6 km/h (4 Bft)
05.12.2011 18:28 13,4 C 3,6 C 0,0 UV-I 0,0 C 50 % 86 % 0 % 1002,3 hPa 0,0 l/m 16,5 km/h (3 Bft) 0 min 0 min 20,6 km/h (4 Bft)
05.12.2011 18:30 13,4 C 3,6 C 0,0 UV-I 0,0 C 50 % 86 % 0 % 1002,3 hPa 0,0 l/m 15,3 km/h (3 Bft) 0 min 0 min 13,5 km/h (3 Bft)
05.12.2011 18:32 13,4 C 3,7 C 0,0 UV-I 0,0 C 50 % 86 % 0 % 1002,3 hPa 0,0 l/m 14,1 km/h (3 Bft) 0 min 0 min 7,1 km/h (2 Bft)
05.12.2011 18:34 13,4 C 3,7 C 0,0 UV-I 0,0 C 50 % 86 % 0 % 1002,3 hPa 0,0 l/m 12,0 km/h (2 Bft) 0 min 0 min 10,3 km/h (2 Bft)
05.12.2011 18:36 13,4 C 3,8 C 0,0 UV-I 0,0 C 50 % 86 % 0 % 1002,3 hPa 0,0 l/m 11,2 km/h (2 Bft) 0 min 0 min 10,3 km/h (2 Bft)
05.12.2011 18:38 13,2 C 3,7 C 0,0 UV-I 0,0 C 50 % 86 % 0 % 1002,3 hPa 0,0 l/m 9,6 km/h (2 Bft) 0 min 0 min 5,5 km/h (1 Bft)
05.12.2011 18:40 13,4 C 3,7 C 0,0 UV-I 0,0 C 50 % 86 % 0 % 1002,3 hPa 0,0 l/m 8,8 km/h (2 Bft) 0 min 0 min 7,7 km/h (2 Bft)
05.12.2011 18:42 13,4 C 3,7 C 0,0 UV-I 0,0 C 50 % 86 % 0 % 1002,3 hPa 0,0 l/m 8,8 km/h (2 Bft) 0 min 0 min 20,3 km/h (4 Bft)
05.12.2011 18:44 13,4 C 3,9 C 0,0 UV-I 0,0 C 50 % 86 % 0 % 1002,4 hPa 0,0 l/m 8,8 km/h (2 Bft) 0 min 0 min 20,3 km/h (4 Bft)
05.12.2011 18:46 13,4 C 3,9 C 0,0 UV-I 0,0 C 50 % 86 % 0 % 1002,4 hPa 0,0 l/m 9,2 km/h (2 Bft) 0 min 0 min 9,3 km/h (2 Bft)
05.12.2011 18:48 13,4 C 3,9 C 0,0 UV-I 0,0 C 50 % 86 % 0 % 1002,4 hPa 0,0 l/m 9,2 km/h (2 Bft) 0 min 0 min 9,3 km/h (2 Bft)
05.12.2011 18:50 13,4 C 3,9 C 0,0 UV-I 0,0 C 50 % 86 % 0 % 1002,4 hPa 0,0 l/m 10,0 km/h (2 Bft) 0 min 0 min 13,8 km/h (3 Bft)
05.12.2011 18:52 13,3 C 3,8 C 0,0 UV-I 0,0 C 50 % 86 % 0 % 1002,4 hPa 0,0 l/m 11,2 km/h (2 Bft) 0 min 0 min 13,8 km/h (3 Bft)
05.12.2011 18:54 13,3 C 3,9 C 0,0 UV-I 0,0 C 50 % 86 % 0 % 1002,4 hPa 0,0 l/m 10,4 km/h (2 Bft) 0 min 0 min 14,8 km/h (3 Bft)
05.12.2011 18:56 13,3 C 3,9 C 0,0 UV-I 0,0 C 50 % 86 % 0 % 1002,4 hPa 0,0 l/m 11,6 km/h (2 Bft) 0 min 0 min 14,8 km/h (3 Bft)
05.12.2011 18:58 13,3 C 4,0 C 0,0 UV-I 0,0 C 50 % 86 % 0 % 1002,4 hPa 0,0 l/m 12,8 km/h (3 Bft) 0 min 0 min 12,2 km/h (2 Bft)
05.12.2011 19:00 13,3 C 4,0 C 0,0 UV-I 0,0 C 50 % 86 % 0 % 1002,4 hPa 0,0 l/m 13,3 km/h (3 Bft) 0 min 0 min 12,2 km/h (2 Bft)
05.12.2011 19:02 13,4 C 4,0 C 0,0 UV-I 0,0 C 50 % 86 % 0 % 1002,4 hPa 0,0 l/m 13,3 km/h (3 Bft) 0 min 0 min 20,3 km/h (4 Bft)
05.12.2011 19:06 13,4 C 4,0 C 0,0 UV-I 0,0 C 50 % 86 % 0 % 1002,6 hPa 0,0 l/m 13,3 km/h (3 Bft) 0 min 0 min 17,1 km/h (3 Bft)
05.12.2011 19:08 13,4 C 4,0 C 0,0 UV-I 0,0 C 50 % 86 % 0 % 1002,6 hPa 0,0 l/m 12,4 km/h (3 Bft) 0 min 0 min 17,1 km/h (3 Bft)
05.12.2011 19:10 13,4 C 3,9 C 0,0 UV-I 0,0 C 50 % 86 % 0 % 1002,6 hPa 0,0 l/m 11,2 km/h (2 Bft) 0 min 0 min 12,2 km/h (2 Bft)
05.12.2011 19:12 13,4 C 3,9 C 0,0 UV-I 0,0 C 50 % 86 % 0 % 1002,6 hPa 0,0 l/m 11,6 km/h (2 Bft) 0 min 0 min 12,2 km/h (2 Bft)
05.12.2011 19:14 13,4 C 3,9 C 0,0 UV-I 0,0 C 50 % 86 % 0 % 1002,6 hPa 0,0 l/m 10,0 km/h (2 Bft) 0 min 0 min 7,4 km/h (2 Bft)
05.12.2011 19:16 13,4 C 3,9 C 0,0 UV-I 0,0 C 50 % 86 % 0 % 1002,6 hPa 0,0 l/m 9,2 km/h (2 Bft) 0 min 0 min 9,3 km/h (2 Bft)
05.12.2011 19:18 13,4 C 3,8 C 0,0 UV-I 0,0 C 50 % 86 % 0 % 1002,6 hPa 0,0 l/m 8,4 km/h (2 Bft) 0 min 0 min 9,3 km/h (2 Bft)
05.12.2011 19:20 13,4 C 3,8 C 0,0 UV-I 0,0 C 50 % 86 % 0 % 1002,6 hPa 0,0 l/m 8,8 km/h (2 Bft) 0 min 0 min 7,4 km/h (2 Bft)
05.12.2011 19:22 13,4 C 3,9 C 0,0 UV-I 0,0 C 50 % 86 % 0 % 1002,6 hPa 0,0 l/m 8,0 km/h (2 Bft) 0 min 0 min 4,2 km/h (1 Bft)
05.12.2011 19:24 13,4 C 3,9 C 0,0 UV-I 0,0 C 50 % 86 % 0 % 1002,6 hPa 0,0 l/m 7,2 km/h (2 Bft) 0 min 0 min 6,4 km/h (2 Bft)
05.12.2011 19:26 13,4 C 3,8 C 0,0 UV-I 0,0 C 50 % 86 % 0 % 1002,6 hPa 0,0 l/m 7,2 km/h (2 Bft) 0 min 0 min 9,3 km/h (2 Bft)
05.12.2011 19:28 13,4 C 3,8 C 0,0 UV-I 0,0 C 50 % 86 % 0 % 1002,6 hPa 0,0 l/m 6,8 km/h (2 Bft) 0 min 0 min 9,3 km/h (2 Bft)
05.12.2011 19:30 13,3 C 3,7 C 0,0 UV-I 0,0 C 50 % 86 % 0 % 1002,6 hPa 0,0 l/m 6,8 km/h (2 Bft) 0 min 0 min 7,4 km/h (2 Bft)
05.12.2011 19:32 13,4 C 3,7 C 0,0 UV-I 0,0 C 50 % 86 % 0 % 1002,6 hPa 0,0 l/m 6,8 km/h (2 Bft) 0 min 0 min 9,7 km/h (2 Bft)
05.12.2011 19:34 13,3 C 3,7 C 0,0 UV-I 0,0 C 50 % 86 % 0 % 1002,6 hPa 0,0 l/m 6,4 km/h (2 Bft) 0 min 0 min 9,7 km/h (2 Bft)
05.12.2011 19:36 13,3 C 3,6 C 0,0 UV-I 0,0 C 50 % 86 % 0 % 1002,6 hPa 0,0 l/m 6,4 km/h (2 Bft) 0 min 0 min 5,5 km/h (1 Bft)
05.12.2011 19:38 13,3 C 3,6 C 0,0 UV-I 0,0 C 50 % 86 % 0 % 1002,6 hPa 0,0 l/m 5,6 km/h (1 Bft) 0 min 0 min 5,5 km/h (1 Bft)
05.12.2011 19:40 13,3 C 3,6 C 0,0 UV-I 0,0 C 50 % 86 % 0 % 1002,6 hPa 0,0 l/m 6,4 km/h (2 Bft) 0 min 0 min 17,4 km/h (3 Bft)
05.12.2011 19:42 13,3 C 3,6 C 0,0 UV-I 0,0 C 50 % 86 % 0 % 1002,6 hPa 0,0 l/m 6,0 km/h (2 Bft) 0 min 0 min 17,4 km/h (3 Bft)
05.12.2011 19:44 13,5 C 3,6 C 0,0 UV-I 0,0 C 50 % 86 % 0 % 1002,6 hPa 0,0 l/m 5,6 km/h (1 Bft) 0 min 0 min 3,9 km/h (1 Bft)
05.12.2011 19:46 13,3 C 3,7 C 0,0 UV-I 0,0 C 50 % 86 % 0 % 1002,7 hPa 0,0 l/m 6,4 km/h (2 Bft) 0 min 0 min 16,1 km/h (3 Bft)
05.12.2011 19:48 13,5 C 3,6 C 0,0 UV-I 0,0 C 50 % 86 % 0 % 1002,7 hPa 0,0 l/m 6,4 km/h (2 Bft) 0 min 0 min 16,1 km/h (3 Bft)
05.12.2011 19:50 13,5 C 3,6 C 0,0 UV-I 0,0 C 50 % 86 % 0 % 1002,7 hPa 0,0 l/m 5,6 km/h (1 Bft) 0 min 0 min 4,2 km/h (1 Bft)
05.12.2011 19:52 13,5 C 3,5 C 0,0 UV-I 0,0 C 50 % 86 % 0 % 1002,7 hPa 0,0 l/m 5,2 km/h (1 Bft) 0 min 0 min 8,0 km/h (2 Bft)
05.12.2011 19:54 13,5 C 3,5 C 0,0 UV-I 0,0 C 50 % 86 % 0 % 1002,7 hPa 0,0 l/m 5,6 km/h (1 Bft) 0 min 0 min 8,0 km/h (2 Bft)
05.12.2011 19:56 13,5 C 3,5 C 0,0 UV-I 0,0 C 50 % 86 % 0 % 1002,7 hPa 0,0 l/m 5,6 km/h (1 Bft) 0 min 0 min 9,3 km/h (2 Bft)
05.12.2011 19:58 13,5 C 3,5 C 0,0 UV-I 0,0 C 50 % 86 % 0 % 1002,7 hPa 0,0 l/m 4,8 km/h (1 Bft) 0 min 0 min 9,3 km/h (2 Bft)
05.12.2011 20:00 13,5 C 3,5 C 0,0 UV-I 0,0 C 50 % 86 % 0 % 1002,7 hPa 0,0 l/m 6,0 km/h (2 Bft) 0 min 0 min 9,3 km/h (2 Bft)
05.12.2011 20:02 13,5 C 3,5 C 0,0 UV-I 0,0 C 50 % 86 % 0 % 1002,7 hPa 0,0 l/m 5,6 km/h (1 Bft) 0 min 0 min 13,8 km/h (3 Bft)
05.12.2011 20:06 13,5 C 3,5 C 0,0 UV-I 0,0 C 50 % 86 % 0 % 1002,8 hPa 0,0 l/m 6,0 km/h (2 Bft) 0 min 0 min 6,8 km/h (2 Bft)
05.12.2011 20:08 13,5 C 3,5 C 0,0 UV-I 0,0 C 50 % 87 % 0 % 1002,8 hPa 0,0 l/m 6,0 km/h (2 Bft) 0 min 0 min 6,8 km/h (2 Bft)
05.12.2011 20:10 13,5 C 3,5 C 0,0 UV-I 0,0 C 50 % 86 % 0 % 1002,8 hPa 0,0 l/m 5,2 km/h (1 Bft) 0 min 0 min 6,8 km/h (2 Bft)
05.12.2011 20:12 13,4 C 3,5 C 0,0 UV-I 0,0 C 50 % 86 % 0 % 1002,8 hPa 0,0 l/m 5,2 km/h (1 Bft) 0 min 0 min 8,0 km/h (2 Bft)
05.12.2011 20:14 13,4 C 3,5 C 0,0 UV-I 0,0 C 50 % 87 % 0 % 1002,8 hPa 0,0 l/m 5,2 km/h (1 Bft) 0 min 0 min 8,0 km/h (2 Bft)
05.12.2011 20:16 13,4 C 3,5 C 0,0 UV-I 0,0 C 50 % 87 % 0 % 1002,8 hPa 0,0 l/m 4,8 km/h (1 Bft) 0 min 0 min 8,0 km/h (2 Bft)
05.12.2011 20:18 13,4 C 3,5 C 0,0 UV-I 0,0 C 50 % 87 % 0 % 1002,8 hPa 0,0 l/m 5,6 km/h (1 Bft) 0 min 0 min 5,8 km/h (2 Bft)
05.12.2011 20:20 13,4 C 3,5 C 0,0 UV-I 0,0 C 50 % 87 % 0 % 1002,8 hPa 0,0 l/m 6,0 km/h (2 Bft) 0 min 0 min 6,1 km/h (2 Bft)
05.12.2011 20:22 13,4 C 3,5 C 0,0 UV-I 0,0 C 50 % 87 % 0 % 1002,8 hPa 0,0 l/m 6,8 km/h (2 Bft) 0 min 0 min 11,9 km/h (2 Bft)
05.12.2011 20:24 13,4 C 3,4 C 0,0 UV-I 0,0 C 50 % 87 % 0 % 1002,8 hPa 0,0 l/m 6,8 km/h (2 Bft) 0 min 0 min 11,9 km/h (2 Bft)
05.12.2011 20:26 13,4 C 3,4 C 0,0 UV-I 0,0 C 50 % 87 % 0 % 1002,8 hPa 0,0 l/m 6,4 km/h (2 Bft) 0 min 0 min 5,1 km/h (1 Bft)
05.12.2011 20:28 13,4 C 3,4 C 0,0 UV-I 0,0 C 50 % 87 % 0 % 1002,8 hPa 0,0 l/m 6,0 km/h (2 Bft) 0 min 0 min 4,8 km/h (1 Bft)
05.12.2011 20:30 13,4 C 3,5 C 0,0 UV-I 0,0 C 50 % 87 % 0 % 1002,8 hPa 0,0 l/m 5,6 km/h (1 Bft) 0 min 0 min 10,0 km/h (2 Bft)
05.12.2011 20:32 13,4 C 3,4 C 0,0 UV-I 0,0 C 50 % 87 % 0 % 1002,8 hPa 0,0 l/m 5,6 km/h (1 Bft) 0 min 0 min 10,0 km/h (2 Bft)
05.12.2011 20:34 13,4 C 3,5 C 0,0 UV-I 0,0 C 50 % 87 % 0 % 1002,8 hPa 0,0 l/m 5,2 km/h (1 Bft) 0 min 0 min 6,1 km/h (2 Bft)
05.12.2011 20:36 13,4 C 3,4 C 0,0 UV-I 0,0 C 50 % 87 % 0 % 1002,8 hPa 0,0 l/m 6,0 km/h (2 Bft) 0 min 0 min 12,2 km/h (2 Bft)
05.12.2011 20:38 13,4 C 3,5 C 0,0 UV-I 0,0 C 50 % 87 % 0 % 1002,8 hPa 0,0 l/m 6,8 km/h (2 Bft) 0 min 0 min 12,2 km/h (2 Bft)
05.12.2011 20:40 13,4 C 3,4 C 0,0 UV-I 0,0 C 50 % 87 % 0 % 1002,8 hPa 0,0 l/m 6,4 km/h (2 Bft) 0 min 0 min 5,8 km/h (2 Bft)
05.12.2011 20:42 13,4 C 3,5 C 0,0 UV-I 0,0 C 50 % 87 % 0 % 1002,8 hPa 0,0 l/m 6,8 km/h (2 Bft) 0 min 0 min 5,5 km/h (1 Bft)
05.12.2011 20:44 13,4 C 3,4 C 0,0 UV-I 0,0 C 50 % 87 % 0 % 1002,5 hPa 0,0 l/m 7,2 km/h (2 Bft) 0 min 0 min 9,7 km/h (2 Bft)
05.12.2011 20:46 13,4 C 3,4 C 0,0 UV-I 0,0 C 50 % 87 % 0 % 1002,5 hPa 0,0 l/m 7,2 km/h (2 Bft) 0 min 0 min 9,7 km/h (2 Bft)
05.12.2011 20:48 13,5 C 3,4 C 0,0 UV-I 0,0 C 50 % 87 % 0 % 1002,5 hPa 0,0 l/m 7,6 km/h (2 Bft) 0 min 0 min 18,0 km/h (3 Bft)
05.12.2011 20:50 13,4 C 3,5 C 0,0 UV-I 0,0 C 50 % 87 % 0 % 1002,5 hPa 0,0 l/m 7,2 km/h (2 Bft) 0 min 0 min 18,0 km/h (3 Bft)
05.12.2011 20:52 13,4 C 3,5 C 0,0 UV-I 0,0 C 50 % 87 % 0 % 1002,5 hPa 0,0 l/m 7,6 km/h (2 Bft) 0 min 0 min 12,6 km/h (3 Bft)
05.12.2011 20:54 13,4 C 3,5 C 0,0 UV-I 0,0 C 50 % 87 % 0 % 1002,5 hPa 0,0 l/m 7,6 km/h (2 Bft) 0 min 0 min 12,6 km/h (3 Bft)
05.12.2011 20:56 13,5 C 3,5 C 0,0 UV-I 0,0 C 50 % 87 % 0 % 1002,5 hPa 0,0 l/m 7,6 km/h (2 Bft) 0 min 0 min 6,8 km/h (2 Bft)
05.12.2011 20:58 13,5 C 3,5 C 0,0 UV-I 0,0 C 50 % 88 % 0 % 1002,5 hPa 0,0 l/m 8,4 km/h (2 Bft) 0 min 0 min 11,9 km/h (2 Bft)
05.12.2011 21:00 13,5 C 3,6 C 0,0 UV-I 0,0 C 50 % 88 % 0 % 1002,5 hPa 0,0 l/m 8,4 km/h (2 Bft) 0 min 0 min 11,9 km/h (2 Bft)
05.12.2011 21:02 13,5 C 3,7 C 0,0 UV-I 0,0 C 50 % 88 % 0 % 1002,5 hPa 0,0 l/m 8,8 km/h (2 Bft) 0 min 0 min 9,0 km/h (2 Bft)
05.12.2011 21:06 13,5 C 3,7 C 0,0 UV-I 0,0 C 50 % 88 % 0 % 1002,6 hPa 0,0 l/m 9,2 km/h (2 Bft) 0 min 0 min 11,6 km/h (2 Bft)
05.12.2011 21:08 13,5 C 3,7 C 0,0 UV-I 0,0 C 50 % 88 % 0 % 1002,6 hPa 0,0 l/m 9,2 km/h (2 Bft) 0 min 0 min 11,6 km/h (2 Bft)
05.12.2011 21:10 13,5 C 3,7 C 0,0 UV-I 0,0 C 50 % 88 % 0 % 1002,6 hPa 0,0 l/m 8,4 km/h (2 Bft) 0 min 0 min 5,8 km/h (2 Bft)
05.12.2011 21:12 13,5 C 3,7 C 0,0 UV-I 0,0 C 50 % 88 % 0 % 1002,6 hPa 0,0 l/m 8,4 km/h (2 Bft) 0 min 0 min 11,6 km/h (2 Bft)
05.12.2011 21:14 13,5 C 3,9 C 0,0 UV-I 0,0 C 50 % 88 % 0 % 1002,6 hPa 0,0 l/m 8,0 km/h (2 Bft) 0 min 0 min 11,6 km/h (2 Bft)
05.12.2011 21:16 13,5 C 3,9 C 0,0 UV-I 0,0 C 50 % 88 % 0 % 1002,6 hPa 0,0 l/m 7,6 km/h (2 Bft) 0 min 0 min 10,9 km/h (2 Bft)
05.12.2011 21:18 13,5 C 3,9 C 0,0 UV-I 0,0 C 50 % 88 % 0 % 1002,6 hPa 0,0 l/m 8,0 km/h (2 Bft) 0 min 0 min 12,2 km/h (2 Bft)
05.12.2011 21:20 13,3 C 3,8 C 0,0 UV-I 0,0 C 50 % 88 % 0 % 1002,6 hPa 0,0 l/m 8,4 km/h (2 Bft) 0 min 0 min 12,9 km/h (3 Bft)
05.12.2011 21:22 13,3 C 3,9 C 0,0 UV-I 0,0 C 50 % 88 % 0 % 1002,6 hPa 0,0 l/m 9,2 km/h (2 Bft) 0 min 0 min 15,1 km/h (3 Bft)
05.12.2011 21:24 13,3 C 4,0 C 0,0 UV-I 0,0 C 50 % 88 % 0 % 1002,4 hPa 0,0 l/m 8,8 km/h (2 Bft) 0 min 0 min 15,1 km/h (3 Bft)
05.12.2011 21:26 13,3 C 4,0 C 0,0 UV-I 0,0 C 50 % 88 % 0 % 1002,4 hPa 0,0 l/m 8,8 km/h (2 Bft) 0 min 0 min 7,7 km/h (2 Bft)
05.12.2011 21:28 13,3 C 4,0 C 0,0 UV-I 0,0 C 50 % 88 % 0 % 1002,4 hPa 0,0 l/m 8,8 km/h (2 Bft) 0 min 0 min 9,0 km/h (2 Bft)
05.12.2011 21:30 13,3 C 4,0 C 0,0 UV-I 0,0 C 50 % 88 % 0 % 1002,4 hPa 0,0 l/m 8,8 km/h (2 Bft) 0 min 0 min 9,0 km/h (2 Bft)
05.12.2011 21:32 13,3 C 4,0 C 0,0 UV-I 0,0 C 50 % 88 % 0 % 1002,4 hPa 0,0 l/m 8,8 km/h (2 Bft) 0 min 0 min 9,0 km/h (2 Bft)
05.12.2011 21:34 13,3 C 4,0 C 0,0 UV-I 0,0 C 50 % 88 % 0 % 1002,4 hPa 0,0 l/m 8,8 km/h (2 Bft) 0 min 0 min 16,1 km/h (3 Bft)
05.12.2011 21:36 13,4 C 4,1 C 0,0 UV-I 0,0 C 50 % 88 % 0 % 1002,4 hPa 0,0 l/m 9,6 km/h (2 Bft) 0 min 0 min 16,1 km/h (3 Bft)
05.12.2011 21:38 13,3 C 4,1 C 0,0 UV-I 0,0 C 50 % 88 % 0 % 1002,4 hPa 0,0 l/m 9,2 km/h (2 Bft) 0 min 0 min 13,5 km/h (3 Bft)
05.12.2011 21:40 13,3 C 4,1 C 0,0 UV-I 0,0 C 50 % 88 % 0 % 1002,4 hPa 0,0 l/m 9,2 km/h (2 Bft) 0 min 0 min 13,5 km/h (3 Bft)
05.12.2011 21:42 13,3 C 4,1 C 0,0 UV-I 0,0 C 51 % 88 % 0 % 1002,4 hPa 0,0 l/m 9,2 km/h (2 Bft) 0 min 0 min 13,5 km/h (3 Bft)
05.12.2011 21:44 13,4 C 4,1 C 0,0 UV-I 0,0 C 51 % 87 % 0 % 1002,8 hPa 0,0 l/m 9,2 km/h (2 Bft) 0 min 0 min 9,7 km/h (2 Bft)
05.12.2011 21:46 13,3 C 4,3 C 0,0 UV-I 0,0 C 50 % 87 % 0 % 1002,8 hPa 0,0 l/m 8,0 km/h (2 Bft) 0 min 0 min 4,8 km/h (1 Bft)
05.12.2011 21:48 13,3 C 4,3 C 0,0 UV-I 0,0 C 50 % 87 % 0 % 1002,8 hPa 0,0 l/m 8,4 km/h (2 Bft) 0 min 0 min 13,5 km/h (3 Bft)
05.12.2011 21:50 13,4 C 4,3 C 0,0 UV-I 0,0 C 50 % 87 % 0 % 1002,8 hPa 0,0 l/m 8,0 km/h (2 Bft) 0 min 0 min 13,5 km/h (3 Bft)
05.12.2011 21:52 13,3 C 4,3 C 0,0 UV-I 0,0 C 50 % 87 % 0 % 1002,8 hPa 0,0 l/m 7,2 km/h (2 Bft) 0 min 0 min 8,4 km/h (2 Bft)
05.12.2011 21:54 13,4 C 4,3 C 0,0 UV-I 0,0 C 51 % 87 % 0 % 1002,8 hPa 0,0 l/m 7,2 km/h (2 Bft) 0 min 0 min 8,4 km/h (2 Bft)
05.12.2011 21:56 13,4 C 4,3 C 0,0 UV-I 0,0 C 51 % 87 % 0 % 1002,8 hPa 0,0 l/m 7,6 km/h (2 Bft) 0 min 0 min 6,4 km/h (2 Bft)
05.12.2011 21:58 13,4 C 4,3 C 0,0 UV-I 0,0 C 51 % 87 % 0 % 1002,8 hPa 0,0 l/m 7,6 km/h (2 Bft) 0 min 0 min 9,0 km/h (2 Bft)
05.12.2011 22:00 13,4 C 4,3 C 0,0 UV-I 0,0 C 50 % 87 % 0 % 1002,8 hPa 0,0 l/m 7,6 km/h (2 Bft) 0 min 0 min 9,0 km/h (2 Bft)
05.12.2011 22:02 13,4 C 4,3 C 0,0 UV-I 0,0 C 50 % 87 % 0 % 1002,8 hPa 0,0 l/m 7,6 km/h (2 Bft) 0 min 0 min 5,5 km/h (1 Bft)
05.12.2011 22:06 13,4 C 4,3 C 0,0 UV-I 0,0 C 50 % 87 % 0 % 1002,9 hPa 0,0 l/m 8,4 km/h (2 Bft) 0 min 0 min 10,9 km/h (2 Bft)
05.12.2011 22:08 13,4 C 4,3 C 0,0 UV-I 0,0 C 51 % 87 % 0 % 1002,9 hPa 0,0 l/m 8,4 km/h (2 Bft) 0 min 0 min 10,9 km/h (2 Bft)
05.12.2011 22:10 13,4 C 4,3 C 0,0 UV-I 0,0 C 50 % 87 % 0 % 1002,9 hPa 0,0 l/m 8,0 km/h (2 Bft) 0 min 0 min 6,1 km/h (2 Bft)
05.12.2011 22:12 13,4 C 4,3 C 0,0 UV-I 0,0 C 51 % 86 % 0 % 1002,9 hPa 0,0 l/m 6,8 km/h (2 Bft) 0 min 0 min 10,0 km/h (2 Bft)
05.12.2011 22:14 13,4 C 4,3 C 0,0 UV-I 0,0 C 51 % 86 % 0 % 1002,9 hPa 0,0 l/m 6,4 km/h (2 Bft) 0 min 0 min 10,0 km/h (2 Bft)
05.12.2011 22:16 13,4 C 4,2 C 0,0 UV-I 0,0 C 51 % 87 % 0 % 1002,9 hPa 0,0 l/m 5,6 km/h (1 Bft) 0 min 0 min 6,4 km/h (2 Bft)
05.12.2011 22:18 13,4 C 4,1 C 0,0 UV-I 0,0 C 51 % 87 % 0 % 1002,9 hPa 0,0 l/m 5,2 km/h (1 Bft) 0 min 0 min 10,0 km/h (2 Bft)
05.12.2011 22:20 13,4 C 4,1 C 0,0 UV-I 0,0 C 51 % 87 % 0 % 1002,9 hPa 0,0 l/m 5,6 km/h (1 Bft) 0 min 0 min 10,0 km/h (2 Bft)
05.12.2011 22:22 13,4 C 4,1 C 0,0 UV-I 0,0 C 51 % 87 % 0 % 1002,9 hPa 0,0 l/m 6,4 km/h (2 Bft) 0 min 0 min 9,7 km/h (2 Bft)
05.12.2011 22:24 13,4 C 4,1 C 0,0 UV-I 0,0 C 51 % 87 % 0 % 1002,9 hPa 0,0 l/m 7,2 km/h (2 Bft) 0 min 0 min 18,7 km/h (3 Bft)
05.12.2011 22:26 13,4 C 4,1 C 0,0 UV-I 0,0 C 51 % 87 % 0 % 1002,8 hPa 0,0 l/m 7,6 km/h (2 Bft) 0 min 0 min 18,7 km/h (3 Bft)
05.12.2011 22:28 13,4 C 4,1 C 0,0 UV-I 0,0 C 51 % 87 % 0 % 1002,8 hPa 0,0 l/m 8,0 km/h (2 Bft) 0 min 0 min 11,6 km/h (2 Bft)
05.12.2011 22:30 13,4 C 4,1 C 0,0 UV-I 0,0 C 51 % 87 % 0 % 1002,8 hPa 0,0 l/m 8,0 km/h (2 Bft) 0 min 0 min 11,6 km/h (2 Bft)
05.12.2011 22:32 13,4 C 4,1 C 0,0 UV-I 0,0 C 51 % 87 % 0 % 1002,8 hPa 0,0 l/m 8,8 km/h (2 Bft) 0 min 0 min 10,3 km/h (2 Bft)
05.12.2011 22:34 13,4 C 4,1 C 0,0 UV-I 0,0 C 50 % 87 % 0 % 1002,8 hPa 0,0 l/m 9,2 km/h (2 Bft) 0 min 0 min 9,3 km/h (2 Bft)
05.12.2011 22:36 13,4 C 4,1 C 0,0 UV-I 0,0 C 51 % 87 % 0 % 1002,8 hPa 0,0 l/m 9,2 km/h (2 Bft) 0 min 0 min 8,7 km/h (2 Bft)
05.12.2011 22:38 13,4 C 4,1 C 0,0 UV-I 0,0 C 51 % 87 % 0 % 1002,8 hPa 0,0 l/m 10,0 km/h (2 Bft) 0 min 0 min 10,9 km/h (2 Bft)
05.12.2011 22:40 13,4 C 4,1 C 0,0 UV-I 0,0 C 51 % 87 % 0 % 1002,8 hPa 0,0 l/m 9,2 km/h (2 Bft) 0 min 0 min 10,9 km/h (2 Bft)
05.12.2011 22:42 13,4 C 4,1 C 0,0 UV-I 0,0 C 51 % 87 % 0 % 1002,8 hPa 0,0 l/m 9,2 km/h (2 Bft) 0 min 0 min 20,3 km/h (4 Bft)
05.12.2011 22:44 13,4 C 4,1 C 0,0 UV-I 0,0 C 51 % 87 % 0 % 1002,9 hPa 0,0 l/m 9,2 km/h (2 Bft) 0 min 0 min 20,3 km/h (4 Bft)
05.12.2011 22:46 13,4 C 4,1 C 0,0 UV-I 0,0 C 51 % 87 % 0 % 1002,9 hPa 0,0 l/m 9,6 km/h (2 Bft) 0 min 0 min 9,3 km/h (2 Bft)
05.12.2011 22:48 13,4 C 4,1 C 0,0 UV-I 0,0 C 51 % 87 % 0 % 1002,9 hPa 0,0 l/m 10,0 km/h (2 Bft) 0 min 0 min 12,9 km/h (3 Bft)
05.12.2011 22:50 13,2 C 4,1 C 0,0 UV-I 0,0 C 51 % 87 % 0 % 1002,9 hPa 0,0 l/m 10,0 km/h (2 Bft) 0 min 0 min 12,9 km/h (3 Bft)
05.12.2011 22:52 13,4 C 4,1 C 0,0 UV-I 0,0 C 51 % 87 % 0 % 1002,9 hPa 0,0 l/m 10,0 km/h (2 Bft) 0 min 0 min 10,0 km/h (2 Bft)
05.12.2011 22:54 13,4 C 4,1 C 0,0 UV-I 0,0 C 51 % 87 % 0 % 1002,9 hPa 0,0 l/m 10,0 km/h (2 Bft) 0 min 0 min 6,8 km/h (2 Bft)
05.12.2011 22:56 13,4 C 4,1 C 0,0 UV-I 0,0 C 51 % 87 % 0 % 1002,9 hPa 0,0 l/m 9,2 km/h (2 Bft) 0 min 0 min 23,2 km/h (4 Bft)
05.12.2011 22:58 13,2 C 4,1 C 0,0 UV-I 0,0 C 51 % 87 % 0 % 1002,9 hPa 0,0 l/m 9,6 km/h (2 Bft) 0 min 0 min 23,2 km/h (4 Bft)
05.12.2011 23:00 13,4 C 4,2 C 0,0 UV-I 0,0 C 51 % 87 % 0 % 1002,9 hPa 0,0 l/m 9,6 km/h (2 Bft) 0 min 0 min 12,2 km/h (2 Bft)
05.12.2011 23:02 13,4 C 4,2 C 0,0 UV-I 0,0 C 51 % 87 % 0 % 1002,9 hPa 0,0 l/m 9,6 km/h (2 Bft) 0 min 0 min 11,9 km/h (2 Bft)
05.12.2011 23:06 13,4 C 4,3 C 0,0 UV-I 0,0 C 51 % 87 % 0 % 1002,6 hPa 0,0 l/m 10,8 km/h (2 Bft) 0 min 0 min 15,4 km/h (3 Bft)
05.12.2011 23:08 13,4 C 4,3 C 0,0 UV-I 0,0 C 51 % 87 % 0 % 1002,6 hPa 0,0 l/m 10,0 km/h (2 Bft) 0 min 0 min 9,3 km/h (2 Bft)
05.12.2011 23:10 13,4 C 4,3 C 0,0 UV-I 0,0 C 51 % 87 % 0 % 1002,6 hPa 0,0 l/m 9,2 km/h (2 Bft) 0 min 0 min 9,3 km/h (2 Bft)
05.12.2011 23:12 13,4 C 4,2 C 0,0 UV-I 0,0 C 51 % 87 % 0 % 1002,6 hPa 0,0 l/m 9,2 km/h (2 Bft) 0 min 0 min 12,2 km/h (2 Bft)
05.12.2011 23:14 13,4 C 4,3 C 0,0 UV-I 0,0 C 51 % 87 % 0 % 1002,6 hPa 0,0 l/m 10,0 km/h (2 Bft) 0 min 0 min 12,2 km/h (2 Bft)
05.12.2011 23:16 13,4 C 4,3 C 0,0 UV-I 0,0 C 51 % 87 % 0 % 1002,6 hPa 0,0 l/m 9,6 km/h (2 Bft) 0 min 0 min 11,6 km/h (2 Bft)
05.12.2011 23:18 13,4 C 4,2 C 0,0 UV-I 0,0 C 51 % 87 % 0 % 1002,6 hPa 0,0 l/m 10,0 km/h (2 Bft) 0 min 0 min 9,0 km/h (2 Bft)
05.12.2011 23:20 13,4 C 4,2 C 0,0 UV-I 0,0 C 51 % 87 % 0 % 1002,6 hPa 0,0 l/m 11,2 km/h (2 Bft) 0 min 0 min 19,0 km/h (3 Bft)
05.12.2011 23:22 13,4 C 4,2 C 0,0 UV-I 0,0 C 51 % 87 % 0 % 1002,6 hPa 0,0 l/m 10,0 km/h (2 Bft) 0 min 0 min 19,0 km/h (3 Bft)
05.12.2011 23:24 13,4 C 4,1 C 0,0 UV-I 0,0 C 51 % 87 % 0 % 1002,8 hPa 0,0 l/m 9,2 km/h (2 Bft) 0 min 0 min 8,0 km/h (2 Bft)
05.12.2011 23:26 13,4 C 4,1 C 0,0 UV-I 0,0 C 51 % 87 % 0 % 1002,8 hPa 0,0 l/m 8,4 km/h (2 Bft) 0 min 0 min 8,0 km/h (2 Bft)
05.12.2011 23:28 13,2 C 4,1 C 0,0 UV-I 0,0 C 51 % 87 % 0 % 1002,8 hPa 0,0 l/m 9,2 km/h (2 Bft) 0 min 0 min 6,8 km/h (2 Bft)
05.12.2011 23:30 13,2 C 4,1 C 0,0 UV-I 0,0 C 51 % 87 % 0 % 1002,8 hPa 0,0 l/m 8,8 km/h (2 Bft) 0 min 0 min 12,6 km/h (3 Bft)
05.12.2011 23:32 13,4 C 4,1 C 0,0 UV-I 0,0 C 51 % 87 % 0 % 1002,8 hPa 0,0 l/m 8,8 km/h (2 Bft) 0 min 0 min 12,6 km/h (3 Bft)
05.12.2011 23:34 13,2 C 4,2 C 0,0 UV-I 0,0 C 51 % 87 % 0 % 1002,8 hPa 0,0 l/m 9,2 km/h (2 Bft) 0 min 0 min 7,1 km/h (2 Bft)
05.12.2011 23:36 13,2 C 4,1 C 0,0 UV-I 0,0 C 51 % 87 % 0 % 1002,8 hPa 0,0 l/m 9,2 km/h (2 Bft) 0 min 0 min 11,6 km/h (2 Bft)
05.12.2011 23:38 13,2 C 4,1 C 0,0 UV-I 0,0 C 51 % 87 % 0 % 1002,8 hPa 0,0 l/m 10,0 km/h (2 Bft) 0 min 0 min 12,6 km/h (3 Bft)
05.12.2011 23:40 13,2 C 4,1 C 0,0 UV-I 0,0 C 51 % 87 % 0 % 1002,8 hPa 0,0 l/m 10,0 km/h (2 Bft) 0 min 0 min 12,6 km/h (3 Bft)
05.12.2011 23:42 13,2 C 4,1 C 0,0 UV-I 0,0 C 51 % 87 % 0 % 1002,8 hPa 0,0 l/m 10,0 km/h (2 Bft) 0 min 0 min 10,0 km/h (2 Bft)
05.12.2011 23:44 13,2 C 4,1 C 0,0 UV-I 0,0 C 51 % 87 % 0 % 1002,9 hPa 0,0 l/m 10,4 km/h (2 Bft) 0 min 0 min 20,0 km/h (4 Bft)
05.12.2011 23:46 13,2 C 4,1 C 0,0 UV-I 0,0 C 51 % 87 % 0 % 1002,9 hPa 0,0 l/m 10,4 km/h (2 Bft) 0 min 0 min 20,0 km/h (4 Bft)
05.12.2011 23:48 13,3 C 4,1 C 0,0 UV-I 0,0 C 51 % 87 % 0 % 1002,9 hPa 0,0 l/m 10,4 km/h (2 Bft) 0 min 0 min 10,3 km/h (2 Bft)
05.12.2011 23:50 13,2 C 4,1 C 0,0 UV-I 0,0 C 51 % 87 % 0 % 1002,9 hPa 0,0 l/m 10,4 km/h (2 Bft) 0 min 0 min 11,9 km/h (2 Bft)
05.12.2011 23:54 13,2 C 4,1 C 0,0 UV-I 0,0 C 51 % 86 % 0 % 1002,9 hPa 0,0 l/m 9,6 km/h (2 Bft) 0 min 0 min 13,2 km/h (3 Bft)
05.12.2011 23:56 13,2 C 4,0 C 0,0 UV-I 0,0 C 51 % 86 % 0 % 1002,9 hPa 0,0 l/m 8,8 km/h (2 Bft) 0 min 0 min 13,2 km/h (3 Bft)
05.12.2011 23:58 13,2 C 4,0 C 0,0 UV-I 0,0 C 51 % 86 % 0 % 1002,9 hPa 0,0 l/m 9,6 km/h (2 Bft) 0 min 0 min 13,2 km/h (3 Bft)
_ Min-Zeit 18:38 16:48 00:00 00:00 13:50 13:44 00:00 00:04 - 15:40 - - 01:14
Minimum _ 13,2 C 2,1 C 0,0 UV-I 0,0 C 47 % 75 % 0 % 991,1 hPa - 1,2 km/h (1 Bft) - - 0,0 km/h (0 Bft)
_ Max-Zeit 00:00 00:00 11:58 12:24 00:24 17:02 11:14 14:44 16:52 00:44 09:54 00:00 14:52
Maximum _ 15,2 C 7,7 C 0,5 UV-I 3,9 C 55 % 91 % 100 % 1003,4 hPa 0,5 l/m 17,3 km/h
NW (3 Bft)
2 min 2 min 44,7 km/h
W-NW (6 Bft)
Durchschnitt _ 14,1 C 4,5 C 0,0 UV-I 0,3 C 51 % 85 % 10 % 999,9 hPa #8,5 l/m 9,3 km/h (2 Bft) #2:14 h #2:50 h 12,9 km/h (3 Bft)
© 2012 W. Hausmann